Time,TemperatureF,DewpointF,PressureIn,WindDirection,WindDirectionDegrees,WindSpeedMPH,WindSpeedGustMPH,Humidity,HourlyPrecipIn,Conditions,Clouds,dailyrainin,SolarRadiationWatts/m^2,SoftwareType,DateUTC
2013-01-24 00:00:00,43.0,39.4,29.62,ENE,78,8.1,8.1,87,0.00,RA,,0.00,0.0,WeatherDisplay:10.37,2013-01-23 23:00:00,
2013-01-24 00:02:00,43.1,39.5,29.62,ENE,70,8.1,8.1,87,0.00,RA,,0.00,0.0,WeatherDisplay:10.37,2013-01-23 23:02:00,
2013-01-24 00:03:00,43.1,39.5,29.62,ENE,70,4.6,4.6,87,0.00,RA,,0.00,0.0,WeatherDisplay:10.37,2013-01-23 23:03:00,
2013-01-24 00:04:00,43.1,39.5,29.62,ENE,70,4.6,4.6,87,0.00,RA,,0.00,0.0,WeatherDisplay:10.37,2013-01-23 23:04:00,
2013-01-24 00:06:00,43.2,39.6,29.61,ENE,73,4.6,4.6,87,0.00,RA,,0.00,0.0,WeatherDisplay:10.37,2013-01-23 23:06:00,
2013-01-24 00:07:00,43.2,39.6,29.61,ENE,73,4.0,4.0,87,0.00,RA,,0.00,0.0,WeatherDisplay:10.37,2013-01-23 23:07:00,
2013-01-24 00:09:00,43.2,39.6,29.61,East,86,5.0,5.0,87,0.00,RA,,0.00,0.0,WeatherDisplay:10.37,2013-01-23 23:09:00,
2013-01-24 00:11:00,43.3,39.7,29.61,East,88,6.9,6.9,87,0.00,CLR,,0.00,0.0,WeatherDisplay:10.37,2013-01-23 23:11:00,
2013-01-24 00:12:00,43.3,39.7,29.61,East,86,4.6,4.6,87,0.00,CLR,,0.00,0.0,WeatherDisplay:10.37,2013-01-23 23:12:00,
2013-01-24 00:14:00,43.3,39.7,29.60,ENE,69,8.1,8.1,87,0.00,CLR,,0.00,0.0,WeatherDisplay:10.37,2013-01-23 23:14:00,
2013-01-24 00:16:00,43.3,39.7,29.60,ENE,67,8.1,8.1,87,0.00,CLR,,0.00,0.0,WeatherDisplay:10.37,2013-01-23 23:16:00,
2013-01-24 00:17:00,43.4,39.8,29.60,ENE,75,8.1,8.1,87,0.00,CLR,,0.00,0.0,WeatherDisplay:10.37,2013-01-23 23:17:00,
2013-01-24 00:19:00,43.4,39.8,29.60,ENE,76,6.9,6.9,87,0.00,CLR,,0.00,0.0,WeatherDisplay:10.37,2013-01-23 23:19:00,
2013-01-24 00:21:00,43.4,39.8,29.60,ENE,66,7.0,7.0,87,0.00,CLR,,0.00,0.0,WeatherDisplay:10.37,2013-01-23 23:21:00,
2013-01-24 00:22:00,43.4,39.8,29.60,ENE,68,6.9,6.9,87,0.00,CLR,,0.00,0.0,WeatherDisplay:10.37,2013-01-23 23:22:00,
2013-01-24 00:24:00,43.5,39.9,29.59,ENE,74,7.0,7.0,87,0.00,CLR,,0.00,0.0,WeatherDisplay:10.37,2013-01-23 23:24:00,
2013-01-24 00:26:00,43.5,39.9,29.59,ENE,78,6.9,6.9,87,0.00,CLR,,0.00,0.0,WeatherDisplay:10.37,2013-01-23 23:26:00,
2013-01-24 00:27:00,43.6,40.0,29.59,ENE,73,12.7,12.7,87,0.00,CLR,,0.00,0.0,WeatherDisplay:10.37,2013-01-23 23:27:00,
2013-01-24 00:29:00,43.6,40.0,29.59,ENE,63,11.5,11.5,87,0.00,CLR,,0.00,0.0,WeatherDisplay:10.37,2013-01-23 23:29:00,
2013-01-24 00:31:00,43.6,40.0,29.59,ENE,61,13.8,13.8,87,0.00,CLR,,0.00,0.0,WeatherDisplay:10.37,2013-01-23 23:31:00,
2013-01-24 00:32:00,43.6,40.0,29.59,NE,50,12.7,12.7,87,0.00,CLR,,0.00,0.0,WeatherDisplay:10.37,2013-01-23 23:32:00,
2013-01-24 00:34:00,43.7,39.8,29.59,ENE,65,10.4,10.4,86,0.00,CLR,,0.00,0.0,WeatherDisplay:10.37,2013-01-23 23:34:00,
2013-01-24 00:36:00,43.7,39.8,29.59,ENE,59,10.4,10.4,86,0.00,CLR,,0.00,0.0,WeatherDisplay:10.37,2013-01-23 23:36:00,
2013-01-24 00:37:00,43.7,39.8,29.59,ENE,68,9.2,9.2,86,0.00,CLR,,0.00,0.0,WeatherDisplay:10.37,2013-01-23 23:37:00,
2013-01-24 00:39:00,43.7,39.8,29.59,ENE,68,9.2,9.2,86,0.00,CLR,,0.00,0.0,WeatherDisplay:10.37,2013-01-23 23:39:00,
2013-01-24 00:40:00,43.7,39.8,29.59,ENE,67,9.2,9.2,86,0.00,CLR,,0.00,0.0,WeatherDisplay:10.37,2013-01-23 23:40:00,
2013-01-24 00:41:00,43.7,39.8,29.59,ENE,60,10.4,10.4,86,0.00,CLR,,0.00,0.0,WeatherDisplay:10.37,2013-01-23 23:41:00,
2013-01-24 00:42:00,43.7,39.8,29.58,ENE,69,10.4,10.4,86,0.00,CLR,,0.00,0.0,WeatherDisplay:10.37,2013-01-23 23:42:00,
2013-01-24 00:44:00,43.7,39.8,29.58,ENE,64,9.2,9.2,86,0.00,CLR,,0.00,0.0,WeatherDisplay:10.37,2013-01-23 23:44:00,
2013-01-24 00:45:00,43.7,39.8,29.58,ENE,65,8.1,8.1,86,0.00,CLR,,0.00,0.0,WeatherDisplay:10.37,2013-01-23 23:45:00,
2013-01-24 00:46:00,43.8,39.9,29.58,ENE,68,8.0,8.0,86,0.00,CLR,,0.00,0.0,WeatherDisplay:10.37,2013-01-23 23:46:00,
2013-01-24 00:47:00,43.8,39.9,29.58,NE,54,9.2,9.2,86,0.00,CLR,,0.00,0.0,WeatherDisplay:10.37,2013-01-23 23:47:00,
2013-01-24 00:49:00,43.8,39.9,29.58,ENE,69,8.1,8.1,86,0.00,CLR,,0.00,0.0,WeatherDisplay:10.37,2013-01-23 23:49:00,
2013-01-24 00:50:00,43.8,39.9,29.58,ENE,72,9.2,9.2,86,0.00,CLR,,0.00,0.0,WeatherDisplay:10.37,2013-01-23 23:50:00,
2013-01-24 00:51:00,43.9,40.0,29.58,ENE,78,7.0,7.0,86,0.00,CLR,,0.00,0.0,WeatherDisplay:10.37,2013-01-23 23:51:00,
2013-01-24 00:53:00,43.9,40.0,29.58,ENE,68,9.2,9.2,86,0.00,CLR,,0.00,0.0,WeatherDisplay:10.37,2013-01-23 23:53:00,
2013-01-24 00:54:00,43.9,40.0,29.58,ENE,59,10.4,10.4,86,0.00,CLR,,0.00,0.0,WeatherDisplay:10.37,2013-01-23 23:54:00,
2013-01-24 00:55:00,43.9,40.0,29.58,ENE,61,10.4,10.4,86,0.00,CLR,,0.00,0.0,WeatherDisplay:10.37,2013-01-23 23:55:00,
2013-01-24 00:57:00,44.0,40.1,29.58,ENE,64,11.5,11.5,86,0.00,CLR,,0.00,0.0,WeatherDisplay:10.37,2013-01-23 23:57:00,
2013-01-24 00:58:00,44.0,40.1,29.58,ENE,63,11.5,11.5,86,0.00,CLR,,0.00,0.0,WeatherDisplay:10.37,2013-01-23 23:58:00,
2013-01-24 00:59:00,44.0,40.1,29.58,ENE,65,11.5,11.5,86,0.00,CLR,,0.00,0.0,WeatherDisplay:10.37,2013-01-23 23:59:00,
2013-01-24 01:00:00,44.0,40.1,29.58,ENE,71,11.5,11.5,86,0.00,CLR,,0.00,0.0,WeatherDisplay:10.37,2013-01-24 00:00:00,
2013-01-24 01:02:00,44.0,40.1,29.57,ENE,61,11.5,11.5,86,0.00,CLR,,0.00,0.0,WeatherDisplay:10.37,2013-01-24 00:02:00,
2013-01-24 01:03:00,44.0,40.1,29.57,ENE,64,11.5,11.5,86,0.00,CLR,,0.00,0.0,WeatherDisplay:10.37,2013-01-24 00:03:00,
2013-01-24 01:04:00,44.0,40.1,29.57,ENE,61,10.4,10.4,86,0.00,CLR,,0.00,0.0,WeatherDisplay:10.37,2013-01-24 00:04:00,
2013-01-24 01:05:00,44.1,40.2,29.57,ENE,69,11.5,11.5,86,0.00,CLR,,0.00,0.0,WeatherDisplay:10.37,2013-01-24 00:05:00,
2013-01-24 01:07:00,44.1,40.2,29.57,East,79,11.5,11.5,86,0.00,CLR,,0.00,0.0,WeatherDisplay:10.37,2013-01-24 00:07:00,
2013-01-24 01:08:00,44.1,40.2,29.57,NE,54,11.5,11.5,86,0.00,CLR,,0.00,0.0,WeatherDisplay:10.37,2013-01-24 00:08:00,
2013-01-24 01:09:00,44.1,40.2,29.57,ENE,63,12.7,12.7,86,0.00,CLR,,0.01,0.0,WeatherDisplay:10.37,2013-01-24 00:09:00,
2013-01-24 01:10:00,44.1,40.2,29.57,NE,51,10.4,10.4,86,0.01,RA,,0.01,0.0,WeatherDisplay:10.37,2013-01-24 00:10:00,
2013-01-24 01:12:00,44.1,40.2,29.57,NE,55,10.0,10.0,86,0.01,RA,,0.01,0.0,WeatherDisplay:10.37,2013-01-24 00:12:00,
2013-01-24 01:13:00,44.0,40.1,29.57,ENE,75,10.4,10.4,86,0.01,RA,,0.01,0.0,WeatherDisplay:10.37,2013-01-24 00:13:00,
2013-01-24 01:14:00,44.0,39.8,29.57,ENE,67,12.7,12.7,85,0.01,RA,,0.01,0.0,WeatherDisplay:10.37,2013-01-24 00:14:00,
2013-01-24 01:15:00,44.0,39.8,29.57,NE,47,12.7,12.7,85,0.01,RA,,0.02,0.0,WeatherDisplay:10.37,2013-01-24 00:15:00,
2013-01-24 01:18:00,44.0,39.8,29.56,ENE,69,8.1,8.1,85,0.02,RA,,0.02,0.0,WeatherDisplay:10.37,2013-01-24 00:18:00,
2013-01-24 01:20:00,44.0,39.8,29.56,NE,49,12.7,12.7,85,0.02,RA,,0.03,0.0,WeatherDisplay:10.37,2013-01-24 00:20:00,
2013-01-24 01:21:00,44.0,40.1,29.56,NE,53,11.5,11.5,86,0.03,RA,,0.03,0.0,WeatherDisplay:10.37,2013-01-24 00:21:00,
2013-01-24 01:23:00,44.1,40.2,29.56,NE,55,8.1,8.1,86,0.03,RA,,0.03,0.0,WeatherDisplay:10.37,2013-01-24 00:23:00,
2013-01-24 01:25:00,44.1,40.2,29.56,ENE,59,9.2,9.2,86,0.03,RA,,0.03,0.0,WeatherDisplay:10.37,2013-01-24 00:25:00,
2013-01-24 01:26:00,44.2,40.3,29.55,ENE,63,8.1,8.1,86,0.03,RA,,0.03,0.0,WeatherDisplay:10.37,2013-01-24 00:26:00,
2013-01-24 01:28:00,44.2,40.3,29.55,ENE,71,10.4,10.4,86,0.03,RA,,0.03,0.0,WeatherDisplay:10.37,2013-01-24 00:28:00,
2013-01-24 01:30:00,44.2,40.3,29.55,ENE,66,9.2,9.2,86,0.03,RA,,0.03,0.0,WeatherDisplay:10.37,2013-01-24 00:30:00,
2013-01-24 01:31:00,44.2,40.0,29.55,ENE,68,11.5,11.5,85,0.03,,,0.03,0.0,WeatherDisplay:10.37,2013-01-24 00:31:00,
2013-01-24 01:33:00,44.1,39.9,29.55,ENE,60,12.7,12.7,85,0.03,CLR,,0.03,0.0,WeatherDisplay:10.37,2013-01-24 00:33:00,
2013-01-24 01:35:00,44.0,39.8,29.55,NE,50,12.7,12.7,85,0.03,CLR,,0.03,0.0,WeatherDisplay:10.37,2013-01-24 00:35:00,
2013-01-24 01:36:00,44.0,39.8,29.55,NE,42,13.8,13.8,85,0.03,CLR,,0.03,0.0,WeatherDisplay:10.37,2013-01-24 00:36:00,
2013-01-24 01:38:00,43.9,39.7,29.55,ENE,63,13.8,13.8,85,0.03,CLR,,0.03,0.0,WeatherDisplay:10.37,2013-01-24 00:38:00,
2013-01-24 01:40:00,43.9,40.0,29.55,NE,53,11.5,11.5,86,0.03,CLR,,0.03,0.0,WeatherDisplay:10.37,2013-01-24 00:40:00,
2013-01-24 01:42:00,43.9,40.0,29.55,NE,50,9.2,9.2,86,0.03,CLR,,0.03,0.0,WeatherDisplay:10.37,2013-01-24 00:42:00,
2013-01-24 01:43:00,43.9,40.0,29.54,NE,37,10.4,10.4,86,0.03,CLR,,0.03,0.0,WeatherDisplay:10.37,2013-01-24 00:43:00,
2013-01-24 01:45:00,43.9,40.0,29.54,NE,38,10.4,10.4,86,0.03,CLR,,0.03,0.0,WeatherDisplay:10.37,2013-01-24 00:45:00,
2013-01-24 01:47:00,43.9,40.0,29.54,NE,48,8.1,8.1,86,0.03,CLR,,0.03,0.0,WeatherDisplay:10.37,2013-01-24 00:47:00,
2013-01-24 01:48:00,44.0,39.8,29.54,NE,55,11.5,11.5,85,0.03,CLR,,0.03,0.0,WeatherDisplay:10.37,2013-01-24 00:48:00,
2013-01-24 01:49:00,44.0,39.8,29.54,NE,55,11.5,11.5,85,0.03,CLR,,0.03,0.0,WeatherDisplay:10.37,2013-01-24 00:49:00,
2013-01-24 01:50:00,44.0,39.8,29.54,East,84,11.5,11.5,85,0.03,CLR,,0.03,0.0,WeatherDisplay:10.37,2013-01-24 00:50:00,
2013-01-24 01:52:00,44.1,39.9,29.54,ENE,66,11.5,11.5,85,0.03,CLR,,0.03,0.0,WeatherDisplay:10.37,2013-01-24 00:52:00,
2013-01-24 01:53:00,44.1,39.9,29.54,ENE,65,13.8,13.8,85,0.03,CLR,,0.03,0.0,WeatherDisplay:10.37,2013-01-24 00:53:00,
2013-01-24 01:54:00,44.1,39.9,29.54,ENE,69,13.8,13.8,85,0.03,CLR,,0.03,0.0,WeatherDisplay:10.37,2013-01-24 00:54:00,
2013-01-24 01:56:00,44.1,39.9,29.54,NNE,28,12.7,12.7,85,0.03,CLR,,0.03,0.0,WeatherDisplay:10.37,2013-01-24 00:56:00,
2013-01-24 01:57:00,44.2,40.0,29.54,ENE,61,11.5,11.5,85,0.03,CLR,,0.03,0.0,WeatherDisplay:10.37,2013-01-24 00:57:00,
2013-01-24 01:59:00,44.2,40.0,29.54,ENE,64,11.5,11.5,85,0.03,CLR,,0.03,0.0,WeatherDisplay:10.37,2013-01-24 00:59:00,
2013-01-24 02:01:00,44.3,40.1,29.54,NE,43,13.8,13.8,85,0.03,CLR,,0.03,0.0,WeatherDisplay:10.37,2013-01-24 01:01:00,
2013-01-24 02:02:00,44.3,39.8,29.54,NE,50,13.8,13.8,84,0.03,CLR,,0.03,0.0,WeatherDisplay:10.37,2013-01-24 01:02:00,
2013-01-24 02:04:00,44.3,39.8,29.54,ENE,63,10.4,10.4,84,0.03,CLR,,0.04,0.0,WeatherDisplay:10.37,2013-01-24 01:04:00,
2013-01-24 02:06:00,44.3,39.8,29.54,ENE,62,10.4,10.4,84,0.04,RA,,0.04,0.0,WeatherDisplay:10.37,2013-01-24 01:06:00,
2013-01-24 02:07:00,44.4,39.9,29.54,ENE,69,8.1,8.1,84,0.04,RA,,0.04,0.0,WeatherDisplay:10.37,2013-01-24 01:07:00,
2013-01-24 02:09:00,44.4,39.9,29.54,ENE,72,10.4,10.4,84,0.04,RA,,0.04,0.0,WeatherDisplay:10.37,2013-01-24 01:09:00,
2013-01-24 02:11:00,44.4,39.9,29.54,ENE,71,8.1,8.1,84,0.03,RA,,0.04,0.0,WeatherDisplay:10.37,2013-01-24 01:11:00,
2013-01-24 02:12:00,44.4,39.9,29.55,ENE,71,6.9,6.9,84,0.03,RA,,0.04,0.0,WeatherDisplay:10.37,2013-01-24 01:12:00,
2013-01-24 02:14:00,44.4,39.9,29.55,ENE,69,8.1,8.1,84,0.03,RA,,0.04,0.0,WeatherDisplay:10.37,2013-01-24 01:14:00,
2013-01-24 02:16:00,44.3,39.8,29.55,ENE,69,4.6,4.6,84,0.04,RA,,0.05,0.0,WeatherDisplay:10.37,2013-01-24 01:16:00,
2013-01-24 02:17:00,44.3,39.8,29.54,ENE,75,10.4,10.4,84,0.04,RA,,0.06,0.0,WeatherDisplay:10.37,2013-01-24 01:17:00,
2013-01-24 02:19:00,44.3,39.8,29.54,NNE,31,10.4,10.4,84,0.04,RA,,0.06,0.0,WeatherDisplay:10.37,2013-01-24 01:19:00,
2013-01-24 02:21:00,44.3,39.8,29.54,NE,38,8.1,8.1,84,0.04,RA,,0.07,0.0,WeatherDisplay:10.37,2013-01-24 01:21:00,
2013-01-24 02:22:00,44.3,39.8,29.54,NE,43,9.2,9.2,84,0.04,RA,,0.07,0.0,WeatherDisplay:10.37,2013-01-24 01:22:00,
2013-01-24 02:24:00,44.2,39.7,29.54,NNE,33,10.4,10.4,84,0.04,RA,,0.07,0.0,WeatherDisplay:10.37,2013-01-24 01:24:00,
2013-01-24 02:26:00,44.3,39.8,29.54,NNE,22,13.8,13.8,84,0.04,RA,,0.07,0.0,WeatherDisplay:10.37,2013-01-24 01:26:00,
2013-01-24 02:28:00,44.2,39.7,29.54,North,11,8.1,8.1,84,0.04,RA,,0.07,0.0,WeatherDisplay:10.37,2013-01-24 01:28:00,
2013-01-24 02:29:00,44.3,39.8,29.53,NNE,22,8.1,8.1,84,0.04,RA,,0.07,0.0,WeatherDisplay:10.37,2013-01-24 01:29:00,
2013-01-24 02:31:00,44.3,39.8,29.53,ENE,78,10.4,10.4,84,0.05,RA,,0.08,0.0,WeatherDisplay:10.37,2013-01-24 01:31:00,
2013-01-24 02:33:00,44.3,39.8,29.53,ENE,60,11.5,11.5,84,0.05,RA,,0.08,0.0,WeatherDisplay:10.37,2013-01-24 01:33:00,
2013-01-24 02:34:00,44.3,39.8,29.53,ENE,63,11.5,11.5,84,0.05,RA,,0.08,0.0,WeatherDisplay:10.37,2013-01-24 01:34:00,
2013-01-24 02:36:00,44.3,40.1,29.52,ENE,69,11.5,11.5,85,0.05,RA,,0.08,0.0,WeatherDisplay:10.37,2013-01-24 01:36:00,
2013-01-24 02:38:00,44.4,40.2,29.52,ENE,66,10.4,10.4,85,0.05,RA,,0.08,0.0,WeatherDisplay:10.37,2013-01-24 01:38:00,
2013-01-24 02:39:00,44.4,40.2,29.52,ENE,69,10.4,10.4,85,0.05,RA,,0.08,0.0,WeatherDisplay:10.37,2013-01-24 01:39:00,
2013-01-24 02:40:00,44.3,40.1,29.52,East,82,9.2,9.2,85,0.05,RA,,0.08,0.0,WeatherDisplay:10.37,2013-01-24 01:40:00,
2013-01-24 02:41:00,44.4,40.2,29.53,ENE,76,9.2,9.2,85,0.05,,,0.08,0.0,WeatherDisplay:10.37,2013-01-24 01:41:00,
2013-01-24 02:44:00,44.3,40.1,29.53,East,81,8.1,8.1,85,0.05,CLR,,0.08,0.0,WeatherDisplay:10.37,2013-01-24 01:44:00,
2013-01-24 02:45:00,44.2,40.0,29.53,East,87,8.1,8.1,85,0.05,CLR,,0.08,0.0,WeatherDisplay:10.37,2013-01-24 01:45:00,
2013-01-24 02:46:00,44.2,40.0,29.53,East,82,9.0,9.0,85,0.05,CLR,,0.08,0.0,WeatherDisplay:10.37,2013-01-24 01:46:00,
2013-01-24 02:49:00,44.1,39.9,29.52,ENE,69,11.5,11.5,85,0.05,CLR,,0.08,0.0,WeatherDisplay:10.37,2013-01-24 01:49:00,
2013-01-24 02:50:00,44.0,39.8,29.52,ENE,61,10.4,10.4,85,0.05,CLR,,0.08,0.0,WeatherDisplay:10.37,2013-01-24 01:50:00,
2013-01-24 02:51:00,44.0,39.8,29.52,ENE,61,10.4,10.4,85,0.05,CLR,,0.08,0.0,WeatherDisplay:10.37,2013-01-24 01:51:00,
2013-01-24 02:54:00,43.9,39.7,29.51,ENE,58,11.5,11.5,85,0.06,RA,,0.09,0.0,WeatherDisplay:10.37,2013-01-24 01:54:00,
2013-01-24 02:55:00,43.8,39.6,29.51,ENE,63,9.2,9.2,85,0.06,RA,,0.09,0.0,WeatherDisplay:10.37,2013-01-24 01:55:00,
2013-01-24 02:56:00,43.8,39.6,29.52,ENE,64,8.1,8.1,85,0.06,RA,,0.09,0.0,WeatherDisplay:10.37,2013-01-24 01:56:00,
2013-01-24 02:59:00,43.8,39.6,29.51,ENE,69,6.9,6.9,85,0.06,RA,,0.09,0.0,WeatherDisplay:10.37,2013-01-24 01:59:00,
2013-01-24 03:00:00,43.8,39.6,29.51,ENE,72,10.0,10.0,85,0.06,RA,,0.09,0.0,WeatherDisplay:10.37,2013-01-24 02:00:00,
2013-01-24 03:01:00,43.8,39.6,29.51,East,84,9.2,9.2,85,0.06,RA,,0.09,0.0,WeatherDisplay:10.37,2013-01-24 02:01:00,
2013-01-24 03:04:00,43.8,39.9,29.51,ENE,72,11.5,11.5,86,0.06,,,0.09,0.0,WeatherDisplay:10.37,2013-01-24 02:04:00,
2013-01-24 03:05:00,43.8,39.9,29.51,ENE,72,11.5,11.5,86,0.06,CLR,,0.09,0.0,WeatherDisplay:10.37,2013-01-24 02:05:00,
2013-01-24 03:06:00,43.9,40.0,29.51,ENE,59,10.4,10.4,86,0.05,CLR,,0.09,0.0,WeatherDisplay:10.37,2013-01-24 02:06:00,
2013-01-24 03:09:00,43.9,40.0,29.51,ENE,67,10.4,10.4,86,0.05,CLR,,0.09,0.0,WeatherDisplay:10.37,2013-01-24 02:09:00,
2013-01-24 03:10:00,43.9,40.0,29.51,ENE,70,8.1,8.1,86,0.05,CLR,,0.09,0.0,WeatherDisplay:10.37,2013-01-24 02:10:00,
2013-01-24 03:11:00,43.9,40.0,29.51,ENE,70,8.1,8.1,86,0.05,CLR,,0.09,0.0,WeatherDisplay:10.37,2013-01-24 02:11:00,
2013-01-24 03:15:00,43.9,40.0,29.50,ENE,69,6.9,6.9,86,0.05,CLR,,0.09,0.0,WeatherDisplay:10.37,2013-01-24 02:15:00,
2013-01-24 03:16:00,43.9,40.0,29.50,ENE,69,8.1,8.1,86,0.05,CLR,,0.09,0.0,WeatherDisplay:10.37,2013-01-24 02:16:00,
2013-01-24 03:17:00,43.9,40.0,29.50,ENE,68,9.2,9.2,86,0.04,CLR,,0.09,0.0,WeatherDisplay:10.37,2013-01-24 02:17:00,
2013-01-24 03:20:00,43.9,40.0,29.50,ENE,68,5.0,5.0,86,0.03,CLR,,0.09,0.0,WeatherDisplay:10.37,2013-01-24 02:20:00,
2013-01-24 03:21:00,43.9,40.0,29.50,ENE,68,4.6,4.6,86,0.03,CLR,,0.09,0.0,WeatherDisplay:10.37,2013-01-24 02:21:00,
2013-01-24 03:22:00,43.9,40.0,29.50,ENE,68,6.9,6.9,86,0.02,CLR,,0.09,0.0,WeatherDisplay:10.37,2013-01-24 02:22:00,
2013-01-24 03:25:00,44.0,40.1,29.50,ENE,68,5.0,5.0,86,0.02,CLR,,0.09,0.0,WeatherDisplay:10.37,2013-01-24 02:25:00,
2013-01-24 03:26:00,44.0,40.4,29.50,ENE,69,7.0,7.0,87,0.02,CLR,,0.09,0.0,WeatherDisplay:10.37,2013-01-24 02:26:00,
2013-01-24 03:27:00,44.1,40.5,29.50,ENE,69,6.9,6.9,87,0.02,CLR,,0.09,0.0,WeatherDisplay:10.37,2013-01-24 02:27:00,
2013-01-24 03:30:00,44.2,40.6,29.50,ENE,69,4.6,4.6,87,0.02,CLR,,0.09,0.0,WeatherDisplay:10.37,2013-01-24 02:30:00,
2013-01-24 03:31:00,44.2,40.6,29.50,ENE,69,4.0,4.0,87,0.02,CLR,,0.09,0.0,WeatherDisplay:10.37,2013-01-24 02:31:00,
2013-01-24 03:32:00,44.2,40.6,29.50,ENE,69,5.0,5.0,87,0.01,CLR,,0.09,0.0,WeatherDisplay:10.37,2013-01-24 02:32:00,
2013-01-24 03:35:00,44.2,40.6,29.49,ENE,69,9.2,9.2,87,0.01,CLR,,0.09,0.0,WeatherDisplay:10.37,2013-01-24 02:35:00,
2013-01-24 03:36:00,44.3,40.7,29.49,ENE,72,8.1,8.1,87,0.01,CLR,,0.09,0.0,WeatherDisplay:10.37,2013-01-24 02:36:00,
2013-01-24 03:37:00,44.3,40.7,29.49,ENE,71,8.1,8.1,87,0.01,CLR,,0.09,0.0,WeatherDisplay:10.37,2013-01-24 02:37:00,
2013-01-24 03:40:00,44.3,40.7,29.49,East,80,8.1,8.1,87,0.01,CLR,,0.09,0.0,WeatherDisplay:10.37,2013-01-24 02:40:00,
2013-01-24 03:41:00,44.3,40.7,29.49,East,82,8.1,8.1,87,0.01,CLR,,0.09,0.0,WeatherDisplay:10.37,2013-01-24 02:41:00,
2013-01-24 03:42:00,44.4,40.8,29.49,East,82,8.1,8.1,87,0.01,CLR,,0.10,0.0,WeatherDisplay:10.37,2013-01-24 02:42:00,
2013-01-24 03:45:00,44.4,40.8,29.49,East,81,9.2,9.2,87,0.02,RA,,0.10,0.0,WeatherDisplay:10.37,2013-01-24 02:45:00,
2013-01-24 03:47:00,44.4,40.8,29.49,East,81,7.0,7.0,87,0.02,RA,,0.10,0.0,WeatherDisplay:10.37,2013-01-24 02:47:00,
2013-01-24 03:50:00,44.4,40.8,29.49,East,81,6.9,6.9,87,0.02,RA,,0.10,0.0,WeatherDisplay:10.37,2013-01-24 02:50:00,
2013-01-24 03:52:00,44.3,40.7,29.49,East,81,4.6,4.6,87,0.02,RA,,0.10,0.0,WeatherDisplay:10.37,2013-01-24 02:52:00,
2013-01-24 03:53:00,44.3,40.7,29.49,East,81,4.6,4.6,87,0.01,,,0.10,0.0,WeatherDisplay:10.37,2013-01-24 02:53:00,
2013-01-24 03:55:00,44.3,40.7,29.49,East,81,8.1,8.1,87,0.01,CLR,,0.10,0.0,WeatherDisplay:10.37,2013-01-24 02:55:00,
2013-01-24 03:57:00,44.2,40.3,29.49,East,81,6.9,6.9,86,0.01,CLR,,0.10,0.0,WeatherDisplay:10.37,2013-01-24 02:57:00,
2013-01-24 03:58:00,44.2,40.3,29.49,East,82,6.9,6.9,86,0.01,CLR,,0.10,0.0,WeatherDisplay:10.37,2013-01-24 02:58:00,
2013-01-24 04:01:00,44.1,40.5,29.49,East,79,8.1,8.1,87,0.01,CLR,,0.10,0.0,WeatherDisplay:10.37,2013-01-24 03:01:00,
2013-01-24 04:02:00,44.0,40.4,29.49,East,79,6.9,6.9,87,0.01,CLR,,0.10,0.0,WeatherDisplay:10.37,2013-01-24 03:02:00,
2013-01-24 04:03:00,44.0,40.4,29.49,East,82,6.9,6.9,87,0.01,CLR,,0.10,0.0,WeatherDisplay:10.37,2013-01-24 03:03:00,
2013-01-24 04:06:00,43.9,40.0,29.49,ENE,78,8.1,8.1,86,0.01,CLR,,0.10,0.0,WeatherDisplay:10.37,2013-01-24 03:06:00,
2013-01-24 04:07:00,43.9,40.0,29.49,ENE,78,8.1,8.1,86,0.01,CLR,,0.10,0.0,WeatherDisplay:10.37,2013-01-24 03:07:00,
2013-01-24 04:08:00,43.9,40.0,29.48,ENE,73,7.0,7.0,86,0.01,CLR,,0.10,0.0,WeatherDisplay:10.37,2013-01-24 03:08:00,
2013-01-24 04:11:00,43.9,40.3,29.48,ENE,78,8.1,8.1,87,0.01,CLR,,0.10,0.0,WeatherDisplay:10.37,2013-01-24 03:11:00,
2013-01-24 04:12:00,43.8,40.2,29.49,ENE,78,8.1,8.1,87,0.01,CLR,,0.10,0.0,WeatherDisplay:10.37,2013-01-24 03:12:00,
2013-01-24 04:13:00,43.8,40.2,29.49,East,79,6.0,6.0,87,0.01,CLR,,0.10,0.0,WeatherDisplay:10.37,2013-01-24 03:13:00,
2013-01-24 04:16:00,43.7,40.1,29.49,East,80,3.5,3.5,87,0.01,CLR,,0.10,0.0,WeatherDisplay:10.37,2013-01-24 03:16:00,
2013-01-24 04:17:00,43.7,40.1,29.49,East,81,5.8,5.8,87,0.01,CLR,,0.10,0.0,WeatherDisplay:10.37,2013-01-24 03:17:00,
2013-01-24 04:18:00,43.7,40.1,29.49,East,81,5.8,5.8,87,0.01,CLR,,0.10,0.0,WeatherDisplay:10.37,2013-01-24 03:18:00,
2013-01-24 04:19:00,43.7,40.1,29.49,East,81,4.6,4.6,87,0.01,CLR,,0.10,0.0,WeatherDisplay:10.37,2013-01-24 03:19:00,
2013-01-24 04:21:00,43.7,40.1,29.49,East,81,7.0,7.0,87,0.01,CLR,,0.10,0.0,WeatherDisplay:10.37,2013-01-24 03:21:00,
2013-01-24 04:22:00,43.7,40.1,29.49,East,81,6.9,6.9,87,0.01,CLR,,0.10,0.0,WeatherDisplay:10.37,2013-01-24 03:22:00,
2013-01-24 04:23:00,43.7,40.1,29.49,East,81,6.9,6.9,87,0.01,CLR,,0.10,0.0,WeatherDisplay:10.37,2013-01-24 03:23:00,
2013-01-24 04:24:00,43.7,40.1,29.49,East,81,5.8,5.8,87,0.01,CLR,,0.10,0.0,WeatherDisplay:10.37,2013-01-24 03:24:00,
2013-01-24 04:26:00,43.8,40.2,29.49,East,81,4.6,4.6,87,0.01,CLR,,0.10,0.0,WeatherDisplay:10.37,2013-01-24 03:26:00,
2013-01-24 04:28:00,43.7,40.1,29.49,East,81,4.6,4.6,87,0.02,RA,,0.11,0.0,WeatherDisplay:10.37,2013-01-24 03:28:00,
2013-01-24 04:29:00,43.8,40.2,29.49,East,81,4.6,4.6,87,0.02,RA,,0.11,0.0,WeatherDisplay:10.37,2013-01-24 03:29:00,
2013-01-24 04:31:00,43.8,40.2,29.49,East,81,5.8,5.8,87,0.02,RA,,0.11,0.0,WeatherDisplay:10.37,2013-01-24 03:31:00,
2013-01-24 04:33:00,43.7,40.1,29.49,East,81,6.0,6.0,87,0.02,RA,,0.11,0.0,WeatherDisplay:10.37,2013-01-24 03:33:00,
2013-01-24 04:34:00,43.8,40.2,29.49,East,81,5.8,5.8,87,0.02,RA,,0.11,0.0,WeatherDisplay:10.37,2013-01-24 03:34:00,
2013-01-24 04:36:00,43.8,40.2,29.49,East,81,4.6,4.6,87,0.03,RA,,0.12,0.0,WeatherDisplay:10.37,2013-01-24 03:36:00,
2013-01-24 04:38:00,43.8,40.2,29.49,East,81,5.8,5.8,87,0.03,RA,,0.12,0.0,WeatherDisplay:10.37,2013-01-24 03:38:00,
2013-01-24 04:39:00,43.9,40.3,29.49,East,81,5.8,5.8,87,0.03,RA,,0.13,0.0,WeatherDisplay:10.37,2013-01-24 03:39:00,
2013-01-24 04:41:00,43.9,40.3,29.48,East,81,6.0,6.0,87,0.04,RA,,0.13,0.0,WeatherDisplay:10.37,2013-01-24 03:41:00,
2013-01-24 04:43:00,43.9,40.6,29.48,East,82,5.8,5.8,88,0.04,RA,,0.13,0.0,WeatherDisplay:10.37,2013-01-24 03:43:00,
2013-01-24 04:44:00,44.0,40.7,29.48,East,83,5.8,5.8,88,0.03,RA,,0.13,0.0,WeatherDisplay:10.37,2013-01-24 03:44:00,
2013-01-24 04:46:00,44.0,40.7,29.48,East,83,5.8,5.8,88,0.04,RA,,0.14,0.0,WeatherDisplay:10.37,2013-01-24 03:46:00,
2013-01-24 04:48:00,44.0,40.7,29.48,East,83,4.6,4.6,88,0.04,RA,,0.14,0.0,WeatherDisplay:10.37,2013-01-24 03:48:00,
2013-01-24 04:49:00,44.0,40.7,29.48,East,83,5.8,5.8,88,0.04,RA,,0.14,0.0,WeatherDisplay:10.37,2013-01-24 03:49:00,
2013-01-24 04:51:00,44.1,40.8,29.48,East,83,5.8,5.8,88,0.04,RA,,0.14,0.0,WeatherDisplay:10.37,2013-01-24 03:51:00,
2013-01-24 04:53:00,44.1,40.8,29.48,East,83,4.6,4.6,88,0.04,RA,,0.14,0.0,WeatherDisplay:10.37,2013-01-24 03:53:00,
2013-01-24 04:54:00,44.1,40.8,29.48,East,83,3.5,3.5,88,0.04,,,0.14,0.0,WeatherDisplay:10.37,2013-01-24 03:54:00,
2013-01-24 04:55:00,44.1,40.8,29.48,East,83,3.5,3.5,88,0.04,,,0.14,0.0,WeatherDisplay:10.37,2013-01-24 03:55:00,
2013-01-24 04:56:00,44.2,40.9,29.48,East,83,3.5,3.5,88,0.04,,,0.14,0.0,WeatherDisplay:10.37,2013-01-24 03:56:00,
2013-01-24 04:58:00,44.2,40.9,29.48,East,83,2.3,2.3,88,0.04,CLR,,0.14,0.0,WeatherDisplay:10.37,2013-01-24 03:58:00,
2013-01-24 05:00:00,44.2,40.9,29.48,East,83,4.6,4.6,88,0.04,CLR,,0.14,0.0,WeatherDisplay:10.37,2013-01-24 04:00:00,
2013-01-24 05:01:00,44.1,40.8,29.48,East,83,4.6,4.6,88,0.04,CLR,,0.14,0.0,WeatherDisplay:10.37,2013-01-24 04:01:00,
2013-01-24 05:03:00,44.1,40.8,29.48,East,83,4.6,4.6,88,0.04,CLR,,0.14,0.0,WeatherDisplay:10.37,2013-01-24 04:03:00,
2013-01-24 05:05:00,44.0,40.7,29.48,East,83,3.5,3.5,88,0.04,CLR,,0.14,0.0,WeatherDisplay:10.37,2013-01-24 04:05:00,
2013-01-24 05:06:00,44.0,40.7,29.48,East,83,3.5,3.5,88,0.04,CLR,,0.14,0.0,WeatherDisplay:10.37,2013-01-24 04:06:00,
2013-01-24 05:08:00,44.0,40.7,29.47,East,83,2.3,2.3,88,0.04,CLR,,0.15,0.0,WeatherDisplay:10.37,2013-01-24 04:08:00,
2013-01-24 05:10:00,44.0,40.7,29.47,East,83,2.0,2.0,88,0.05,RA,,0.15,0.0,WeatherDisplay:10.37,2013-01-24 04:10:00,
2013-01-24 05:11:00,44.0,40.7,29.47,East,83,2.3,2.3,88,0.05,RA,,0.15,0.0,WeatherDisplay:10.37,2013-01-24 04:11:00,
2013-01-24 05:13:00,44.0,40.7,29.47,East,83,1.1,1.1,88,0.05,RA,,0.15,0.0,WeatherDisplay:10.37,2013-01-24 04:13:00,
2013-01-24 05:15:00,44.0,40.7,29.47,East,83,0.0,0.0,88,0.05,RA,,0.15,0.0,WeatherDisplay:10.37,2013-01-24 04:15:00,
2013-01-24 05:16:00,44.0,40.7,29.47,East,83,2.3,2.3,88,0.05,RA,,0.15,0.0,WeatherDisplay:10.37,2013-01-24 04:16:00,
2013-01-24 05:18:00,44.0,41.0,29.47,East,83,1.0,0.0,89,0.05,,,0.15,0.0,WeatherDisplay:10.37,2013-01-24 04:18:00,
2013-01-24 05:20:00,44.0,41.0,29.47,East,83,1.1,1.1,89,0.05,,,0.15,0.0,WeatherDisplay:10.37,2013-01-24 04:20:00,
2013-01-24 05:22:00,44.1,41.1,29.47,East,83,0.0,0.0,89,0.05,CLR,,0.15,0.0,WeatherDisplay:10.37,2013-01-24 04:22:00,
2013-01-24 05:23:00,44.1,41.1,29.47,East,83,0.0,0.0,89,0.05,CLR,,0.15,0.0,WeatherDisplay:10.37,2013-01-24 04:23:00,
2013-01-24 05:25:00,44.1,41.1,29.47,East,83,0.0,0.0,89,0.05,CLR,,0.16,0.0,WeatherDisplay:10.37,2013-01-24 04:25:00,
2013-01-24 05:27:00,44.1,41.1,29.47,East,83,0.0,0.0,89,0.06,RA,,0.16,0.0,WeatherDisplay:10.37,2013-01-24 04:27:00,
2013-01-24 05:29:00,44.1,41.1,29.47,East,83,0.0,0.0,89,0.05,RA,,0.16,0.0,WeatherDisplay:10.37,2013-01-24 04:29:00,
2013-01-24 05:30:00,44.1,41.1,29.47,East,83,2.3,2.3,89,0.05,RA,,0.16,0.0,WeatherDisplay:10.37,2013-01-24 04:30:00,
2013-01-24 05:32:00,44.2,41.2,29.47,East,83,0.0,0.0,89,0.05,RA,,0.16,0.0,WeatherDisplay:10.37,2013-01-24 04:32:00,
2013-01-24 05:34:00,44.2,41.2,29.47,East,83,1.1,1.1,89,0.05,RA,,0.16,0.0,WeatherDisplay:10.37,2013-01-24 04:34:00,
2013-01-24 05:35:00,44.2,41.2,29.47,East,83,5.0,5.0,89,0.05,RA,,0.16,0.0,WeatherDisplay:10.37,2013-01-24 04:35:00,
2013-01-24 05:37:00,44.2,41.2,29.47,East,83,3.5,3.5,89,0.04,,,0.16,0.0,WeatherDisplay:10.37,2013-01-24 04:37:00,
2013-01-24 05:40:00,44.2,41.2,29.47,East,92,5.8,5.8,89,0.04,RA,,0.17,0.0,WeatherDisplay:10.37,2013-01-24 04:40:00,
2013-01-24 05:41:00,44.2,41.2,29.47,East,94,4.6,4.6,89,0.04,RA,,0.17,0.0,WeatherDisplay:10.37,2013-01-24 04:41:00,
2013-01-24 05:42:00,44.2,41.2,29.47,East,94,4.6,4.6,89,0.04,RA,,0.17,0.0,WeatherDisplay:10.37,2013-01-24 04:42:00,
2013-01-24 05:45:00,44.2,41.2,29.47,East,94,5.0,5.0,89,0.03,RA,,0.17,0.0,WeatherDisplay:10.37,2013-01-24 04:45:00,
2013-01-24 05:47:00,44.1,41.1,29.47,East,94,8.0,8.0,89,0.03,RA,,0.17,0.0,WeatherDisplay:10.37,2013-01-24 04:47:00,
2013-01-24 05:50:00,44.1,41.1,29.46,East,93,6.9,6.9,89,0.03,,,0.17,0.0,WeatherDisplay:10.37,2013-01-24 04:50:00,
2013-01-24 05:52:00,44.0,41.0,29.46,East,91,7.0,7.0,89,0.03,CLR,,0.17,0.0,WeatherDisplay:10.37,2013-01-24 04:52:00,
2013-01-24 05:55:00,43.9,40.9,29.47,East,89,5.0,5.0,89,0.03,CLR,,0.17,0.0,WeatherDisplay:10.37,2013-01-24 04:55:00,
2013-01-24 05:57:00,43.9,40.9,29.47,East,89,3.5,3.5,89,0.04,RA,,0.18,0.0,WeatherDisplay:10.37,2013-01-24 04:57:00,
2013-01-24 06:00:00,43.8,40.8,29.47,East,88,3.5,3.5,89,0.04,RA,,0.18,0.0,WeatherDisplay:10.37,2013-01-24 05:00:00,
2013-01-24 06:01:00,43.8,40.8,29.47,East,88,3.5,3.5,89,0.04,RA,,0.18,0.0,WeatherDisplay:10.37,2013-01-24 05:01:00,
2013-01-24 06:02:00,43.7,40.7,29.47,East,88,5.8,5.8,89,0.04,RA,,0.18,0.0,WeatherDisplay:10.37,2013-01-24 05:02:00,
2013-01-24 06:05:00,43.6,40.6,29.47,East,88,4.6,4.6,89,0.04,RA,,0.18,0.0,WeatherDisplay:10.37,2013-01-24 05:05:00,
2013-01-24 06:06:00,43.6,40.6,29.47,East,88,4.6,4.6,89,0.04,RA,,0.18,0.0,WeatherDisplay:10.37,2013-01-24 05:06:00,
2013-01-24 06:08:00,43.6,40.6,29.47,East,88,4.6,4.6,89,0.04,,,0.18,0.0,WeatherDisplay:10.37,2013-01-24 05:08:00,
2013-01-24 06:11:00,43.6,40.6,29.46,East,88,4.6,4.6,89,0.03,CLR,,0.18,0.0,WeatherDisplay:10.37,2013-01-24 05:11:00,
2013-01-24 06:13:00,43.6,40.6,29.47,East,88,4.6,4.6,89,0.03,CLR,,0.18,0.0,WeatherDisplay:10.37,2013-01-24 05:13:00,
2013-01-24 06:16:00,43.5,40.5,29.46,East,88,5.0,5.0,89,0.03,CLR,,0.18,0.0,WeatherDisplay:10.37,2013-01-24 05:16:00,
2013-01-24 06:18:00,43.5,40.5,29.46,East,88,4.6,4.6,89,0.03,CLR,,0.18,0.0,WeatherDisplay:10.37,2013-01-24 05:18:00,
2013-01-24 06:21:00,43.5,40.5,29.46,East,88,3.5,3.5,89,0.03,CLR,,0.18,0.0,WeatherDisplay:10.37,2013-01-24 05:21:00,
2013-01-24 06:23:00,43.6,40.6,29.46,East,91,4.6,4.6,89,0.03,CLR,,0.18,0.0,WeatherDisplay:10.37,2013-01-24 05:23:00,
2013-01-24 06:26:00,43.6,40.6,29.46,East,91,3.5,0.0,89,0.03,CLR,,0.18,0.0,WeatherDisplay:10.37,2013-01-24 05:26:00,
2013-01-24 06:28:00,43.6,40.6,29.46,East,91,3.0,3.0,89,0.02,CLR,,0.18,0.0,WeatherDisplay:10.37,2013-01-24 05:28:00,
2013-01-24 06:31:00,43.6,40.6,29.46,ESE,120,9.0,9.0,89,0.02,CLR,,0.18,0.0,WeatherDisplay:10.37,2013-01-24 05:31:00,
2013-01-24 06:33:00,43.6,40.6,29.46,ESE,111,9.2,9.2,89,0.02,CLR,,0.18,0.0,WeatherDisplay:10.37,2013-01-24 05:33:00,
2013-01-24 06:36:00,43.6,40.6,29.46,East,100,5.8,5.8,89,0.02,CLR,,0.18,0.0,WeatherDisplay:10.37,2013-01-24 05:36:00,
2013-01-24 06:38:00,43.6,40.6,29.46,SE,128,4.0,4.0,89,0.02,CLR,,0.18,0.0,WeatherDisplay:10.37,2013-01-24 05:38:00,
2013-01-24 06:41:00,43.6,40.6,29.46,SE,125,3.5,3.5,89,0.01,CLR,,0.18,0.0,WeatherDisplay:10.37,2013-01-24 05:41:00,
2013-01-24 06:42:00,43.6,40.6,29.46,SE,125,3.5,3.5,89,0.01,CLR,,0.18,0.0,WeatherDisplay:10.37,2013-01-24 05:42:00,
2013-01-24 06:43:00,43.5,40.5,29.46,SE,125,3.5,0.0,89,0.01,CLR,,0.18,0.0,WeatherDisplay:10.37,2013-01-24 05:43:00,
2013-01-24 06:46:00,43.5,40.5,29.46,SE,125,3.5,3.5,89,0.01,CLR,,0.18,0.0,WeatherDisplay:10.37,2013-01-24 05:46:00,
2013-01-24 06:47:00,43.5,40.5,29.46,SE,125,3.5,3.5,89,0.01,CLR,,0.18,0.0,WeatherDisplay:10.37,2013-01-24 05:47:00,
2013-01-24 06:48:00,43.5,40.5,29.46,SE,125,3.5,3.5,89,0.02,RA,,0.19,0.0,WeatherDisplay:10.37,2013-01-24 05:48:00,
2013-01-24 06:51:00,43.5,40.5,29.46,SE,125,3.0,3.0,89,0.02,RA,,0.19,0.0,WeatherDisplay:10.37,2013-01-24 05:51:00,
2013-01-24 06:52:00,43.5,40.5,29.46,SE,124,3.5,3.5,89,0.02,RA,,0.19,0.0,WeatherDisplay:10.37,2013-01-24 05:52:00,
2013-01-24 06:53:00,43.5,40.5,29.46,ESE,114,5.0,5.0,89,0.02,RA,,0.19,0.0,WeatherDisplay:10.37,2013-01-24 05:53:00,
2013-01-24 06:57:00,43.5,40.5,29.46,ESE,103,3.5,3.5,89,0.02,RA,,0.19,0.0,WeatherDisplay:10.37,2013-01-24 05:57:00,
2013-01-24 06:58:00,43.5,40.5,29.46,ESE,103,3.5,3.5,89,0.01,RA,,0.19,0.0,WeatherDisplay:10.37,2013-01-24 05:58:00,
2013-01-24 07:02:00,43.5,40.5,29.46,ESE,103,4.0,4.0,89,0.01,CLR,,0.19,0.0,WeatherDisplay:10.37,2013-01-24 06:02:00,
2013-01-24 07:03:00,43.5,40.5,29.46,East,99,6.0,6.0,89,0.01,CLR,,0.19,0.0,WeatherDisplay:10.37,2013-01-24 06:03:00,
2013-01-24 07:07:00,43.5,40.5,29.46,East,98,4.6,4.6,89,0.01,CLR,,0.19,0.0,WeatherDisplay:10.37,2013-01-24 06:07:00,
2013-01-24 07:09:00,43.5,40.5,29.46,East,98,4.6,4.6,89,0.01,CLR,,0.19,0.0,WeatherDisplay:10.37,2013-01-24 06:09:00,
2013-01-24 07:12:00,43.4,40.4,29.46,East,98,4.6,4.6,89,0.01,CLR,,0.19,0.0,WeatherDisplay:10.37,2013-01-24 06:12:00,
2013-01-24 07:14:00,43.4,40.4,29.46,East,98,2.3,2.3,89,0.01,CLR,,0.19,0.0,WeatherDisplay:10.37,2013-01-24 06:14:00,
2013-01-24 07:17:00,43.3,40.3,29.46,East,98,2.0,2.0,89,0.01,CLR,,0.19,0.0,WeatherDisplay:10.37,2013-01-24 06:17:00,
2013-01-24 07:19:00,43.3,40.3,29.46,East,98,3.5,3.5,89,0.01,CLR,,0.19,0.0,WeatherDisplay:10.37,2013-01-24 06:19:00,
2013-01-24 07:22:00,43.3,40.3,29.46,East,98,5.0,5.0,89,0.01,CLR,,0.19,0.0,WeatherDisplay:10.37,2013-01-24 06:22:00,
2013-01-24 07:23:00,43.3,40.3,29.46,East,98,5.0,5.0,89,0.01,CLR,,0.19,0.0,WeatherDisplay:10.37,2013-01-24 06:23:00,
2013-01-24 07:24:00,43.3,40.3,29.46,East,80,7.0,7.0,89,0.01,CLR,,0.19,0.0,WeatherDisplay:10.37,2013-01-24 06:24:00,
2013-01-24 07:27:00,43.3,40.3,29.46,ENE,78,8.1,8.1,89,0.01,CLR,,0.19,0.0,WeatherDisplay:10.37,2013-01-24 06:27:00,
2013-01-24 07:28:00,43.3,40.3,29.46,ENE,78,8.1,8.1,89,0.01,CLR,,0.19,0.0,WeatherDisplay:10.37,2013-01-24 06:28:00,
2013-01-24 07:29:00,43.3,40.3,29.46,ENE,78,4.6,4.6,89,0.01,CLR,,0.19,5.0,WeatherDisplay:10.37,2013-01-24 06:29:00,
2013-01-24 07:32:00,43.3,40.3,29.46,ENE,78,3.5,3.5,89,0.01,CLR,,0.19,5.0,WeatherDisplay:10.37,2013-01-24 06:32:00,
2013-01-24 07:33:00,43.3,40.3,29.46,ENE,78,3.5,3.5,89,0.01,CLR,,0.19,5.0,WeatherDisplay:10.37,2013-01-24 06:33:00,
2013-01-24 07:34:00,43.3,40.3,29.46,ENE,78,2.3,2.3,89,0.01,CLR,,0.19,7.0,WeatherDisplay:10.37,2013-01-24 06:34:00,
2013-01-24 07:37:00,43.2,40.2,29.46,ENE,78,3.5,3.5,89,0.01,CLR,,0.19,9.0,WeatherDisplay:10.37,2013-01-24 06:37:00,
2013-01-24 07:38:00,43.2,40.2,29.46,ENE,78,3.5,0.0,89,0.01,CLR,,0.19,9.0,WeatherDisplay:10.37,2013-01-24 06:38:00,
2013-01-24 07:39:00,43.2,40.2,29.46,ENE,78,2.3,2.3,89,0.01,CLR,,0.19,9.0,WeatherDisplay:10.37,2013-01-24 06:39:00,
2013-01-24 07:42:00,43.2,40.2,29.46,ENE,78,2.0,2.0,89,0.01,CLR,,0.19,11.0,WeatherDisplay:10.37,2013-01-24 06:42:00,
2013-01-24 07:43:00,43.2,40.2,29.46,ENE,78,1.1,1.1,89,0.01,CLR,,0.19,11.0,WeatherDisplay:10.37,2013-01-24 06:43:00,
2013-01-24 07:44:00,43.2,40.2,29.46,ENE,78,1.1,1.1,89,0.01,CLR,,0.19,12.0,WeatherDisplay:10.37,2013-01-24 06:44:00,
2013-01-24 07:47:00,43.2,40.2,29.46,ENE,78,3.5,3.5,89,0.01,CLR,,0.19,12.0,WeatherDisplay:10.37,2013-01-24 06:47:00,
2013-01-24 07:48:00,43.2,40.2,29.46,ENE,78,3.5,3.5,89,0.01,CLR,,0.19,12.0,WeatherDisplay:10.37,2013-01-24 06:48:00,
2013-01-24 07:50:00,43.1,40.1,29.46,ENE,78,0.0,0.0,89,0.00,CLR,,0.19,14.0,WeatherDisplay:10.37,2013-01-24 06:50:00,
2013-01-24 07:52:00,43.2,40.2,29.46,ENE,78,2.3,2.3,89,0.00,CLR,,0.19,12.0,WeatherDisplay:10.37,2013-01-24 06:52:00,
2013-01-24 07:53:00,43.1,40.1,29.46,ENE,78,2.3,2.3,89,0.00,CLR,,0.19,12.0,WeatherDisplay:10.37,2013-01-24 06:53:00,
2013-01-24 07:54:00,43.2,40.2,29.46,ENE,78,2.3,0.0,89,0.00,CLR,,0.19,11.0,WeatherDisplay:10.37,2013-01-24 06:54:00,
2013-01-24 07:55:00,43.1,40.1,29.46,ENE,78,0.0,0.0,89,0.00,CLR,,0.19,11.0,WeatherDisplay:10.37,2013-01-24 06:55:00,
2013-01-24 07:58:00,43.1,40.1,29.46,ENE,78,2.3,2.3,89,0.00,CLR,,0.19,11.0,WeatherDisplay:10.37,2013-01-24 06:58:00,
2013-01-24 07:59:00,43.1,40.1,29.46,ENE,78,2.3,0.0,89,0.00,CLR,,0.19,9.0,WeatherDisplay:10.37,2013-01-24 06:59:00,
2013-01-24 08:00:00,43.1,40.1,29.46,ENE,78,0.0,0.0,89,0.00,CLR,,0.19,9.0,WeatherDisplay:10.37,2013-01-24 07:00:00,
2013-01-24 08:03:00,43.1,40.1,29.47,ENE,78,0.0,0.0,89,0.00,CLR,,0.19,9.0,WeatherDisplay:10.37,2013-01-24 07:03:00,
2013-01-24 08:04:00,43.1,40.1,29.47,ENE,78,0.0,0.0,89,0.00,CLR,,0.19,9.0,WeatherDisplay:10.37,2013-01-24 07:04:00,
2013-01-24 08:05:00,43.1,40.1,29.47,ENE,78,0.0,0.0,89,0.00,CLR,,0.19,9.0,WeatherDisplay:10.37,2013-01-24 07:05:00,
2013-01-24 08:08:00,43.1,40.1,29.47,ENE,78,2.3,2.3,89,0.00,CLR,,0.19,9.0,WeatherDisplay:10.37,2013-01-24 07:08:00,
2013-01-24 08:09:00,43.1,40.1,29.47,ENE,78,2.3,2.3,89,0.00,CLR,,0.19,11.0,WeatherDisplay:10.37,2013-01-24 07:09:00,
2013-01-24 08:10:00,43.1,40.1,29.47,ENE,78,2.3,2.3,89,0.00,CLR,,0.19,11.0,WeatherDisplay:10.37,2013-01-24 07:10:00,
2013-01-24 08:13:00,43.1,40.1,29.47,ENE,78,1.1,0.0,89,0.00,CLR,,0.19,14.0,WeatherDisplay:10.37,2013-01-24 07:13:00,
2013-01-24 08:14:00,43.1,40.1,29.47,ENE,78,0.0,0.0,89,0.00,CLR,,0.19,14.0,WeatherDisplay:10.37,2013-01-24 07:14:00,
2013-01-24 08:15:00,43.1,40.1,29.47,ENE,78,0.0,0.0,89,0.00,CLR,,0.19,0.0,WeatherDisplay:10.37,2013-01-24 07:15:00,
2013-01-24 08:18:00,43.1,40.1,29.47,ENE,78,0.0,0.0,89,0.00,CLR,,0.19,14.0,WeatherDisplay:10.37,2013-01-24 07:18:00,
2013-01-24 08:19:00,43.1,40.1,29.47,ENE,78,0.0,0.0,89,0.00,CLR,,0.19,16.0,WeatherDisplay:10.37,2013-01-24 07:19:00,
2013-01-24 08:20:00,43.2,40.2,29.47,ENE,78,0.0,0.0,89,0.00,CLR,,0.19,16.0,WeatherDisplay:10.37,2013-01-24 07:20:00,
2013-01-24 08:23:00,43.2,40.2,29.47,ENE,78,0.0,0.0,89,0.00,CLR,,0.19,14.0,WeatherDisplay:10.37,2013-01-24 07:23:00,
2013-01-24 08:24:00,43.2,40.2,29.47,ENE,78,0.0,0.0,89,0.00,CLR,,0.19,14.0,WeatherDisplay:10.37,2013-01-24 07:24:00,
2013-01-24 08:25:00,43.2,40.2,29.47,ENE,78,2.3,2.3,89,0.00,CLR,,0.19,0.0,WeatherDisplay:10.37,2013-01-24 07:25:00,
2013-01-24 08:28:00,43.3,40.3,29.46,ENE,78,3.0,3.0,89,0.00,CLR,,0.19,14.0,WeatherDisplay:10.37,2013-01-24 07:28:00,
2013-01-24 08:29:00,43.2,40.2,29.47,ENE,78,3.5,3.5,89,0.00,CLR,,0.19,12.0,WeatherDisplay:10.37,2013-01-24 07:29:00,
2013-01-24 08:31:00,43.3,40.3,29.46,ENE,78,3.5,3.5,89,0.00,CLR,,0.19,12.0,WeatherDisplay:10.37,2013-01-24 07:31:00,
2013-01-24 08:33:00,43.3,40.3,29.47,ENE,78,3.5,3.5,89,0.00,CLR,,0.20,12.0,WeatherDisplay:10.37,2013-01-24 07:33:00,
2013-01-24 08:34:00,43.3,40.3,29.46,ENE,78,3.5,3.5,89,0.01,RA,,0.20,12.0,WeatherDisplay:10.37,2013-01-24 07:34:00,
2013-01-24 08:36:00,43.3,40.3,29.46,ENE,78,4.0,4.0,89,0.01,RA,,0.20,14.0,WeatherDisplay:10.37,2013-01-24 07:36:00,
2013-01-24 08:38:00,43.3,40.3,29.46,ENE,78,8.1,8.1,89,0.01,RA,,0.20,18.0,WeatherDisplay:10.37,2013-01-24 07:38:00,
2013-01-24 08:39:00,43.3,40.3,29.46,ENE,76,8.1,8.1,89,0.01,RA,,0.20,21.0,WeatherDisplay:10.37,2013-01-24 07:39:00,
2013-01-24 08:41:00,43.2,40.2,29.46,ENE,76,4.6,4.6,89,0.01,RA,,0.20,32.0,WeatherDisplay:10.37,2013-01-24 07:41:00,
2013-01-24 08:43:00,43.2,40.2,29.46,ENE,76,3.5,3.5,89,0.01,,,0.20,39.0,WeatherDisplay:10.37,2013-01-24 07:43:00,
2013-01-24 08:44:00,43.2,40.2,29.46,ENE,76,4.0,4.0,89,0.01,,,0.20,44.0,WeatherDisplay:10.37,2013-01-24 07:44:00,
2013-01-24 08:45:00,43.2,40.2,29.46,ENE,76,4.6,4.6,89,0.01,,,0.20,47.0,WeatherDisplay:10.37,2013-01-24 07:45:00,
2013-01-24 08:47:00,43.2,40.2,29.46,ENE,76,3.5,3.5,89,0.01,CLR,,0.20,56.0,WeatherDisplay:10.37,2013-01-24 07:47:00,
2013-01-24 08:49:00,43.2,40.2,29.46,ENE,76,3.5,3.5,89,0.01,CLR,,0.20,63.0,WeatherDisplay:10.37,2013-01-24 07:49:00,
2013-01-24 08:50:00,43.2,40.2,29.46,ENE,76,3.5,3.5,89,0.01,CLR,,0.20,70.0,WeatherDisplay:10.37,2013-01-24 07:50:00,
2013-01-24 08:52:00,43.2,40.2,29.46,ENE,76,3.5,3.5,89,0.01,CLR,,0.20,79.0,WeatherDisplay:10.37,2013-01-24 07:52:00,
2013-01-24 08:54:00,43.2,40.2,29.46,ENE,76,3.5,3.5,89,0.01,CLR,,0.20,86.0,WeatherDisplay:10.37,2013-01-24 07:54:00,
2013-01-24 08:55:00,43.2,40.2,29.46,ENE,76,3.5,3.5,89,0.01,CLR,,0.20,91.0,WeatherDisplay:10.37,2013-01-24 07:55:00,
2013-01-24 08:57:00,43.2,40.2,29.46,ENE,76,3.5,3.5,89,0.01,CLR,,0.20,0.0,WeatherDisplay:10.37,2013-01-24 07:57:00,
2013-01-24 08:59:00,43.2,40.2,29.46,ENE,76,4.0,4.1,89,0.01,CLR,,0.20,105.0,WeatherDisplay:10.37,2013-01-24 07:59:00,
2013-01-24 09:00:00,43.2,40.2,29.46,ENE,76,5.0,5.0,89,0.01,CLR,,0.20,109.0,WeatherDisplay:10.37,2013-01-24 08:00:00,
2013-01-24 09:02:00,43.3,40.3,29.46,ENE,76,4.6,4.9,89,0.01,CLR,,0.20,118.0,WeatherDisplay:10.37,2013-01-24 08:02:00,
2013-01-24 09:04:00,43.3,40.3,29.46,ENE,76,4.6,4.6,89,0.01,CLR,,0.20,128.0,WeatherDisplay:10.37,2013-01-24 08:04:00,
2013-01-24 09:05:00,43.3,40.3,29.46,ENE,76,4.6,4.6,89,0.01,CLR,,0.20,144.0,WeatherDisplay:10.37,2013-01-24 08:05:00,
2013-01-24 09:07:00,43.4,40.4,29.45,ENE,76,3.5,3.5,89,0.01,CLR,,0.20,295.0,WeatherDisplay:10.37,2013-01-24 08:07:00,
2013-01-24 09:09:00,43.6,40.6,29.45,ENE,76,3.5,3.5,89,0.01,CLR,,0.20,330.0,WeatherDisplay:10.37,2013-01-24 08:09:00,
2013-01-24 09:10:00,43.7,40.7,29.45,ENE,76,3.5,3.5,89,0.01,CLR,,0.20,341.0,WeatherDisplay:10.37,2013-01-24 08:10:00,
2013-01-24 09:12:00,43.9,40.9,29.45,ENE,76,3.5,3.5,89,0.01,CLR,,0.20,341.0,WeatherDisplay:10.37,2013-01-24 08:12:00,
2013-01-24 09:14:00,44.1,41.1,29.45,ENE,76,3.5,3.5,89,0.01,CLR,,0.20,346.0,WeatherDisplay:10.37,2013-01-24 08:14:00,
2013-01-24 09:15:00,44.2,41.2,29.45,ENE,76,4.6,4.6,89,0.01,CLR,,0.20,346.0,WeatherDisplay:10.37,2013-01-24 08:15:00,
2013-01-24 09:18:00,44.5,41.5,29.45,ENE,76,2.3,2.3,89,0.01,CLR,,0.20,346.0,WeatherDisplay:10.37,2013-01-24 08:18:00,
2013-01-24 09:19:00,44.5,41.5,29.45,ENE,76,2.3,2.3,89,0.01,CLR,,0.20,346.0,WeatherDisplay:10.37,2013-01-24 08:19:00,
2013-01-24 09:20:00,44.7,41.7,29.45,ENE,76,2.3,2.3,89,0.01,CLR,,0.20,341.0,WeatherDisplay:10.37,2013-01-24 08:20:00,
2013-01-24 09:23:00,44.9,41.9,29.45,ENE,76,3.5,3.5,89,0.01,CLR,,0.20,255.0,WeatherDisplay:10.37,2013-01-24 08:23:00,
2013-01-24 09:24:00,44.9,41.9,29.45,ESE,121,3.5,3.5,89,0.01,CLR,,0.20,313.0,WeatherDisplay:10.37,2013-01-24 08:24:00,
2013-01-24 09:25:00,45.0,42.0,29.45,ESE,121,3.5,3.5,89,0.01,CLR,,0.20,313.0,WeatherDisplay:10.37,2013-01-24 08:25:00,
2013-01-24 09:28:00,45.4,42.1,29.45,ENE,77,8.1,8.1,88,0.01,CLR,,0.20,199.0,WeatherDisplay:10.37,2013-01-24 08:28:00,
2013-01-24 09:29:00,45.4,42.1,29.45,East,79,8.1,8.1,88,0.01,CLR,,0.20,207.0,WeatherDisplay:10.37,2013-01-24 08:29:00,
2013-01-24 09:30:00,45.4,42.1,29.45,East,79,6.9,6.9,88,0.01,CLR,,0.20,207.0,WeatherDisplay:10.37,2013-01-24 08:30:00,
2013-01-24 09:33:00,45.4,41.8,29.45,ENE,78,6.9,6.9,87,0.00,CLR,,0.20,308.0,WeatherDisplay:10.37,2013-01-24 08:33:00,
2013-01-24 09:35:00,45.4,41.8,29.45,ENE,78,5.0,5.0,87,0.00,CLR,,0.20,308.0,WeatherDisplay:10.37,2013-01-24 08:35:00,
2013-01-24 09:36:00,45.4,41.8,29.45,ENE,75,6.9,6.9,87,0.00,CLR,,0.20,332.0,WeatherDisplay:10.37,2013-01-24 08:36:00,
2013-01-24 09:39:00,45.4,41.8,29.45,ENE,76,4.6,4.6,87,0.00,CLR,,0.20,396.0,WeatherDisplay:10.37,2013-01-24 08:39:00,
2013-01-24 09:40:00,45.4,41.8,29.45,ENE,75,4.6,4.6,87,0.00,CLR,,0.20,396.0,WeatherDisplay:10.37,2013-01-24 08:40:00,
2013-01-24 09:41:00,45.5,41.9,29.45,ENE,75,4.6,4.6,87,0.00,CLR,,0.20,403.0,WeatherDisplay:10.37,2013-01-24 08:41:00,
2013-01-24 09:45:00,46.2,42.2,29.45,East,90,6.9,6.9,86,0.00,CLR,,0.20,397.0,WeatherDisplay:10.37,2013-01-24 08:45:00,
2013-01-24 09:46:00,46.3,42.3,29.45,East,90,6.9,6.9,86,0.00,CLR,,0.20,399.0,WeatherDisplay:10.37,2013-01-24 08:46:00,
2013-01-24 09:50:00,46.6,42.3,29.45,ENE,76,8.0,8.0,85,0.00,CLR,,0.20,334.0,WeatherDisplay:10.37,2013-01-24 08:50:00,
2013-01-24 09:51:00,46.6,42.3,29.45,ENE,76,8.1,8.1,85,0.00,CLR,,0.20,253.0,WeatherDisplay:10.37,2013-01-24 08:51:00,
2013-01-24 09:55:00,46.6,42.0,29.45,ENE,76,3.5,3.5,84,0.00,CLR,,0.20,118.0,WeatherDisplay:10.37,2013-01-24 08:55:00,
2013-01-24 09:56:00,46.6,42.0,29.45,ENE,76,3.5,3.5,84,0.00,CLR,,0.20,142.0,WeatherDisplay:10.37,2013-01-24 08:56:00,
2013-01-24 10:00:00,46.8,42.2,29.45,ENE,76,3.5,3.5,84,0.00,CLR,,0.20,306.0,WeatherDisplay:10.37,2013-01-24 09:00:00,
2013-01-24 10:01:00,46.9,42.0,29.45,ENE,76,3.5,3.5,83,0.00,CLR,,0.20,306.0,WeatherDisplay:10.37,2013-01-24 09:01:00,
2013-01-24 10:05:00,47.2,42.3,29.45,ENE,76,3.5,3.5,83,0.00,CLR,,0.20,211.0,WeatherDisplay:10.37,2013-01-24 09:05:00,
2013-01-24 10:06:00,47.3,42.4,29.45,ENE,76,4.6,4.6,83,0.00,CLR,,0.20,171.0,WeatherDisplay:10.37,2013-01-24 09:06:00,
2013-01-24 10:10:00,47.4,42.5,29.45,ENE,76,3.5,3.5,83,0.00,CLR,,0.20,179.0,WeatherDisplay:10.37,2013-01-24 09:10:00,
2013-01-24 10:11:00,47.5,42.6,29.45,ENE,76,3.5,3.5,83,0.00,CLR,,0.20,179.0,WeatherDisplay:10.37,2013-01-24 09:11:00,
2013-01-24 10:12:00,47.5,42.6,29.45,ENE,76,3.5,3.5,83,0.00,CLR,,0.20,355.0,WeatherDisplay:10.37,2013-01-24 09:12:00,
2013-01-24 10:15:00,47.5,42.3,29.45,ENE,76,2.3,0.0,82,0.00,CLR,,0.20,410.0,WeatherDisplay:10.37,2013-01-24 09:15:00,
2013-01-24 10:16:00,47.5,42.3,29.45,ENE,76,2.3,0.0,82,0.00,CLR,,0.20,410.0,WeatherDisplay:10.37,2013-01-24 09:16:00,
2013-01-24 10:17:00,47.7,42.5,29.45,East,80,4.6,4.6,82,0.00,CLR,,0.20,373.0,WeatherDisplay:10.37,2013-01-24 09:17:00,
2013-01-24 10:20:00,48.0,42.8,29.45,East,84,5.0,5.0,82,0.00,CLR,,0.20,415.0,WeatherDisplay:10.37,2013-01-24 09:20:00,
2013-01-24 10:21:00,48.0,42.8,29.45,East,84,3.5,3.5,82,0.00,CLR,,0.20,415.0,WeatherDisplay:10.37,2013-01-24 09:21:00,
2013-01-24 10:22:00,48.2,43.0,29.45,East,84,5.8,5.8,82,0.00,CLR,,0.20,431.0,WeatherDisplay:10.37,2013-01-24 09:22:00,
2013-01-24 10:25:00,48.2,42.6,29.45,ENE,67,8.0,8.0,81,0.00,CLR,,0.20,432.0,WeatherDisplay:10.37,2013-01-24 09:25:00,
2013-01-24 10:26:00,48.2,42.6,29.45,ENE,67,6.9,6.9,81,0.00,CLR,,0.20,432.0,WeatherDisplay:10.37,2013-01-24 09:26:00,
2013-01-24 10:27:00,48.2,42.3,29.45,NE,55,6.9,6.9,80,0.00,CLR,,0.20,439.0,WeatherDisplay:10.37,2013-01-24 09:27:00,
2013-01-24 10:30:00,48.4,42.8,29.45,ENE,58,8.1,8.1,81,0.00,CLR,,0.20,450.0,WeatherDisplay:10.37,2013-01-24 09:30:00,
2013-01-24 10:31:00,48.4,42.8,29.45,ENE,57,8.1,8.1,81,0.00,CLR,,0.20,450.0,WeatherDisplay:10.37,2013-01-24 09:31:00,
2013-01-24 10:32:00,48.4,42.8,29.45,NE,38,10.4,10.4,81,0.00,CLR,,0.20,450.0,WeatherDisplay:10.37,2013-01-24 09:32:00,
2013-01-24 10:36:00,48.3,42.7,29.45,NE,47,6.9,6.9,81,0.00,CLR,,0.20,452.0,WeatherDisplay:10.37,2013-01-24 09:36:00,
2013-01-24 10:37:00,48.3,42.4,29.45,NE,51,7.0,7.0,80,0.00,CLR,,0.20,450.0,WeatherDisplay:10.37,2013-01-24 09:37:00,
2013-01-24 10:41:00,48.2,42.3,29.44,NE,34,8.1,8.1,80,0.00,CLR,,0.20,446.0,WeatherDisplay:10.37,2013-01-24 09:41:00,
2013-01-24 10:42:00,48.3,42.4,29.44,NE,39,5.0,5.0,80,0.00,CLR,,0.20,454.0,WeatherDisplay:10.37,2013-01-24 09:42:00,
2013-01-24 10:46:00,48.5,42.6,29.44,ENE,59,8.1,8.1,80,0.00,CLR,,0.20,441.0,WeatherDisplay:10.37,2013-01-24 09:46:00,
2013-01-24 10:47:00,48.5,42.6,29.44,ENE,61,8.1,8.1,80,0.00,CLR,,0.20,362.0,WeatherDisplay:10.37,2013-01-24 09:47:00,
2013-01-24 10:51:00,48.7,42.8,29.44,ENE,61,3.5,3.5,80,0.00,CLR,,0.20,457.0,WeatherDisplay:10.37,2013-01-24 09:51:00,
2013-01-24 10:52:00,48.9,43.0,29.44,ENE,61,5.0,5.0,80,0.00,CLR,,0.20,457.0,WeatherDisplay:10.37,2013-01-24 09:52:00,
2013-01-24 10:56:00,49.1,43.2,29.44,ENE,57,8.1,8.1,80,0.00,CLR,,0.20,462.0,WeatherDisplay:10.37,2013-01-24 09:56:00,
2013-01-24 10:57:00,49.1,43.2,29.44,NE,41,8.1,8.1,80,0.00,CLR,,0.20,464.0,WeatherDisplay:10.37,2013-01-24 09:57:00,
2013-01-24 10:58:00,49.1,42.9,29.44,NE,38,6.9,6.9,79,0.00,CLR,,0.20,464.0,WeatherDisplay:10.37,2013-01-24 09:58:00,
2013-01-24 11:01:00,49.2,43.3,29.44,NE,42,7.0,7.0,80,0.00,CLR,,0.20,466.0,WeatherDisplay:10.37,2013-01-24 10:01:00,
2013-01-24 11:02:00,49.3,43.4,29.44,NE,41,8.1,8.1,80,0.00,CLR,,0.20,466.0,WeatherDisplay:10.37,2013-01-24 10:02:00,
2013-01-24 11:03:00,49.2,43.0,29.44,NE,49,8.1,8.1,79,0.00,CLR,,0.20,468.0,WeatherDisplay:10.37,2013-01-24 10:03:00,
2013-01-24 11:06:00,49.2,43.0,29.44,NE,46,6.9,6.9,79,0.00,CLR,,0.20,471.0,WeatherDisplay:10.37,2013-01-24 10:06:00,
2013-01-24 11:07:00,49.3,43.1,29.44,NNE,26,9.2,9.2,79,0.00,CLR,,0.20,473.0,WeatherDisplay:10.37,2013-01-24 10:07:00,
2013-01-24 11:08:00,49.2,43.0,29.44,NNE,31,9.2,9.2,79,0.00,CLR,,0.20,473.0,WeatherDisplay:10.37,2013-01-24 10:08:00,
2013-01-24 11:11:00,49.1,42.5,29.44,NNE,33,8.1,8.1,78,0.00,CLR,,0.20,475.0,WeatherDisplay:10.37,2013-01-24 10:11:00,
2013-01-24 11:12:00,49.1,42.5,29.44,NNE,33,6.9,6.9,78,0.00,CLR,,0.20,457.0,WeatherDisplay:10.37,2013-01-24 10:12:00,
2013-01-24 11:13:00,49.1,42.5,29.44,NE,40,8.1,8.1,78,0.00,CLR,,0.20,448.0,WeatherDisplay:10.37,2013-01-24 10:13:00,
2013-01-24 11:16:00,49.1,42.5,29.44,NNE,30,9.2,9.2,78,0.00,CLR,,0.20,345.0,WeatherDisplay:10.37,2013-01-24 10:16:00,
2013-01-24 11:17:00,49.1,42.5,29.44,NNE,19,9.2,9.2,78,0.00,CLR,,0.20,345.0,WeatherDisplay:10.37,2013-01-24 10:17:00,
2013-01-24 11:18:00,49.1,42.5,29.44,NE,36,9.2,9.2,78,0.00,CLR,,0.20,355.0,WeatherDisplay:10.37,2013-01-24 10:18:00,
2013-01-24 11:21:00,49.1,42.5,29.44,NE,56,9.2,9.2,78,0.00,CLR,,0.20,294.0,WeatherDisplay:10.37,2013-01-24 10:21:00,
2013-01-24 11:22:00,49.1,42.5,29.44,NE,55,8.1,8.1,78,0.00,CLR,,0.20,294.0,WeatherDisplay:10.37,2013-01-24 10:22:00,
2013-01-24 11:23:00,49.1,42.5,29.44,ENE,59,10.4,10.4,78,0.00,CLR,,0.20,241.0,WeatherDisplay:10.37,2013-01-24 10:23:00,
2013-01-24 11:26:00,49.0,42.1,29.44,NE,51,8.1,8.1,77,0.00,CLR,,0.20,316.0,WeatherDisplay:10.37,2013-01-24 10:26:00,
2013-01-24 11:27:00,49.0,42.1,29.44,NE,54,5.0,5.0,77,0.00,CLR,,0.20,316.0,WeatherDisplay:10.37,2013-01-24 10:27:00,
2013-01-24 11:28:00,49.0,42.1,29.44,NE,54,4.6,4.6,77,0.00,CLR,,0.20,301.0,WeatherDisplay:10.37,2013-01-24 10:28:00,
2013-01-24 11:31:00,49.2,42.3,29.44,NE,43,8.0,8.0,77,0.00,CLR,,0.20,223.0,WeatherDisplay:10.37,2013-01-24 10:31:00,
2013-01-24 11:32:00,49.2,42.3,29.44,NE,55,5.0,6.1,77,0.00,CLR,,0.20,223.0,WeatherDisplay:10.37,2013-01-24 10:32:00,
2013-01-24 11:33:00,49.2,42.3,29.43,NE,55,8.1,8.1,77,0.00,CLR,,0.20,178.0,WeatherDisplay:10.37,2013-01-24 10:33:00,
2013-01-24 11:34:00,49.2,42.3,29.43,NE,55,4.6,4.6,77,0.00,CLR,,0.20,158.0,WeatherDisplay:10.37,2013-01-24 10:34:00,
2013-01-24 11:36:00,49.1,41.9,29.43,NE,55,4.6,4.6,76,0.00,FEW,,0.20,118.0,WeatherDisplay:10.37,2013-01-24 10:36:00,
2013-01-24 11:37:00,49.1,41.9,29.43,NE,55,4.6,4.6,76,0.00,FEW,,0.20,118.0,WeatherDisplay:10.37,2013-01-24 10:37:00,
2013-01-24 11:38:00,49.1,41.9,29.43,NE,55,3.5,3.5,76,0.00,FEW,,0.20,100.0,WeatherDisplay:10.37,2013-01-24 10:38:00,
2013-01-24 11:39:00,49.1,41.9,29.43,NE,55,3.5,0.0,76,0.00,FEW,,0.20,90.0,WeatherDisplay:10.37,2013-01-24 10:39:00,
2013-01-24 11:42:00,49.1,41.9,29.43,ENE,57,5.0,5.0,76,0.00,FEW,,0.20,86.0,WeatherDisplay:10.37,2013-01-24 10:42:00,
2013-01-24 11:43:00,49.1,41.5,29.43,NE,56,4.6,4.6,75,0.00,FEW,,0.20,86.0,WeatherDisplay:10.37,2013-01-24 10:43:00,
2013-01-24 11:44:00,49.1,41.5,29.42,NE,56,3.5,3.5,75,0.00,FEW,,0.20,88.0,WeatherDisplay:10.37,2013-01-24 10:44:00,
2013-01-24 11:47:00,49.1,41.5,29.43,NE,56,3.5,3.5,75,0.00,FEW,,0.20,91.0,WeatherDisplay:10.37,2013-01-24 10:47:00,
2013-01-24 11:48:00,49.1,41.5,29.43,NE,56,3.5,3.5,75,0.00,FEW,,0.20,93.0,WeatherDisplay:10.37,2013-01-24 10:48:00,
2013-01-24 11:50:00,49.0,41.4,29.43,NE,56,3.5,3.5,75,0.00,FEW,,0.20,95.0,WeatherDisplay:10.37,2013-01-24 10:50:00,
2013-01-24 11:52:00,49.0,41.4,29.42,NE,56,2.0,2.0,75,0.00,FEW,,0.20,97.0,WeatherDisplay:10.37,2013-01-24 10:52:00,
2013-01-24 11:53:00,49.1,41.5,29.42,NE,56,5.0,5.0,75,0.00,FEW,,0.20,100.0,WeatherDisplay:10.37,2013-01-24 10:53:00,
2013-01-24 11:55:00,49.1,41.5,29.42,NE,56,4.6,4.6,75,0.00,FEW,,0.20,104.0,WeatherDisplay:10.37,2013-01-24 10:55:00,
2013-01-24 11:57:00,49.1,41.5,29.42,NE,56,3.5,3.5,75,0.00,FEW,,0.20,109.0,WeatherDisplay:10.37,2013-01-24 10:57:00,
2013-01-24 11:58:00,49.1,41.5,29.42,NE,56,4.0,4.0,75,0.00,FEW,,0.20,113.0,WeatherDisplay:10.37,2013-01-24 10:58:00,
2013-01-24 12:00:00,49.1,41.5,29.42,ENE,57,3.5,3.5,75,0.00,FEW,,0.20,116.0,WeatherDisplay:10.37,2013-01-24 11:00:00,
2013-01-24 12:02:00,49.1,41.5,29.42,ENE,57,1.1,1.1,75,0.00,FEW,,0.20,116.0,WeatherDisplay:10.37,2013-01-24 11:02:00,
2013-01-24 12:03:00,49.1,41.5,29.42,ENE,57,1.1,0.0,75,0.00,FEW,,0.20,125.0,WeatherDisplay:10.37,2013-01-24 11:03:00,
2013-01-24 12:05:00,49.1,41.9,29.42,ENE,57,0.0,0.0,76,0.00,FEW,,0.20,127.0,WeatherDisplay:10.37,2013-01-24 11:05:00,
2013-01-24 12:07:00,49.2,42.0,29.42,ENE,57,3.5,3.5,76,0.00,FEW,,0.20,128.0,WeatherDisplay:10.37,2013-01-24 11:07:00,
2013-01-24 12:08:00,49.2,42.0,29.42,ENE,57,3.5,3.5,76,0.00,FEW,,0.20,128.0,WeatherDisplay:10.37,2013-01-24 11:08:00,
2013-01-24 12:10:00,49.2,42.0,29.42,ENE,57,2.3,2.3,76,0.00,FEW,,0.20,128.0,WeatherDisplay:10.37,2013-01-24 11:10:00,
2013-01-24 12:12:00,49.2,42.0,29.41,ENE,57,3.5,3.5,76,0.00,FEW,,0.20,128.0,WeatherDisplay:10.37,2013-01-24 11:12:00,
2013-01-24 12:13:00,49.2,42.0,29.41,ENE,57,3.5,3.5,76,0.00,FEW,,0.20,128.0,WeatherDisplay:10.37,2013-01-24 11:13:00,
2013-01-24 12:15:00,49.3,42.1,29.41,ENE,57,2.3,2.3,76,0.00,FEW,,0.20,127.0,WeatherDisplay:10.37,2013-01-24 11:15:00,
2013-01-24 12:17:00,49.2,42.0,29.41,ENE,57,3.5,3.5,76,0.00,FEW,,0.20,127.0,WeatherDisplay:10.37,2013-01-24 11:17:00,
2013-01-24 12:18:00,49.2,42.0,29.41,NE,55,3.5,3.5,76,0.00,FEW,,0.20,127.0,WeatherDisplay:10.37,2013-01-24 11:18:00,
2013-01-24 12:20:00,49.2,42.0,29.41,NE,55,6.9,6.9,76,0.00,FEW,,0.20,128.0,WeatherDisplay:10.37,2013-01-24 11:20:00,
2013-01-24 12:22:00,49.1,41.5,29.41,NE,52,6.9,6.9,75,0.00,FEW,,0.20,130.0,WeatherDisplay:10.37,2013-01-24 11:22:00,
2013-01-24 12:23:00,49.1,41.5,29.41,NE,52,5.8,5.8,75,0.00,FEW,,0.20,130.0,WeatherDisplay:10.37,2013-01-24 11:23:00,
2013-01-24 12:24:00,49.1,41.9,29.41,NE,52,5.8,5.8,76,0.00,FEW,,0.20,132.0,WeatherDisplay:10.37,2013-01-24 11:24:00,
2013-01-24 12:25:00,49.1,41.9,29.41,NE,52,4.6,4.6,76,0.00,FEW,,0.20,132.0,WeatherDisplay:10.37,2013-01-24 11:25:00,
2013-01-24 12:27:00,49.1,41.9,29.41,NE,40,5.8,5.8,76,0.00,FEW,,0.20,135.0,WeatherDisplay:10.37,2013-01-24 11:27:00,
2013-01-24 12:28:00,49.1,41.9,29.41,NE,43,6.9,6.9,76,0.00,FEW,,0.20,135.0,WeatherDisplay:10.37,2013-01-24 11:28:00,
2013-01-24 12:29:00,49.1,41.9,29.41,NE,45,7.0,7.0,76,0.00,FEW,,0.20,141.0,WeatherDisplay:10.37,2013-01-24 11:29:00,
2013-01-24 12:30:00,49.1,41.9,29.41,NE,45,8.1,8.1,76,0.00,FEW,,0.20,141.0,WeatherDisplay:10.37,2013-01-24 11:30:00,
2013-01-24 12:33:00,49.0,42.1,29.41,NE,45,3.5,3.5,77,0.00,FEW,,0.20,148.0,WeatherDisplay:10.37,2013-01-24 11:33:00,
2013-01-24 12:34:00,49.0,42.1,29.41,NE,45,4.0,4.0,77,0.00,FEW,,0.20,149.0,WeatherDisplay:10.37,2013-01-24 11:34:00,
2013-01-24 12:35:00,49.0,42.1,29.41,NE,44,4.0,4.0,77,0.00,FEW,,0.20,149.0,WeatherDisplay:10.37,2013-01-24 11:35:00,
2013-01-24 12:38:00,49.0,42.1,29.41,NE,50,8.0,8.0,77,0.00,FEW,,0.20,153.0,WeatherDisplay:10.37,2013-01-24 11:38:00,
2013-01-24 12:40:00,48.9,42.0,29.41,NE,40,7.0,7.0,77,0.00,FEW,,0.20,155.0,WeatherDisplay:10.37,2013-01-24 11:40:00,
2013-01-24 12:43:00,48.8,41.9,29.41,NE,44,5.8,5.8,77,0.00,FEW,,0.20,155.0,WeatherDisplay:10.37,2013-01-24 11:43:00,
2013-01-24 12:45:00,48.8,41.9,29.41,NE,45,5.8,5.8,77,0.00,FEW,,0.20,156.0,WeatherDisplay:10.37,2013-01-24 11:45:00,
2013-01-24 12:48:00,48.8,41.9,29.41,ENE,57,8.0,8.0,77,0.00,FEW,,0.20,162.0,WeatherDisplay:10.37,2013-01-24 11:48:00,
2013-01-24 12:49:00,48.8,41.9,29.41,ENE,58,8.1,8.1,77,0.00,FEW,,0.20,162.0,WeatherDisplay:10.37,2013-01-24 11:49:00,
2013-01-24 12:50:00,48.7,41.8,29.41,ENE,58,8.1,8.1,77,0.00,FEW,,0.20,165.0,WeatherDisplay:10.37,2013-01-24 11:50:00,
2013-01-24 12:53:00,48.8,42.2,29.41,ENE,58,6.9,6.9,78,0.00,FEW,,0.20,227.0,WeatherDisplay:10.37,2013-01-24 11:53:00,
2013-01-24 12:54:00,48.7,42.1,29.41,ENE,58,6.9,6.9,78,0.00,FEW,,0.20,237.0,WeatherDisplay:10.37,2013-01-24 11:54:00,
2013-01-24 12:55:00,48.7,42.1,29.41,ENE,58,6.9,6.9,78,0.00,FEW,,0.20,237.0,WeatherDisplay:10.37,2013-01-24 11:55:00,
2013-01-24 12:58:00,48.8,42.2,29.41,ENE,58,3.5,3.5,78,0.00,FEW,,0.20,246.0,WeatherDisplay:10.37,2013-01-24 11:58:00,
2013-01-24 12:59:00,48.8,42.2,29.40,ENE,58,3.5,3.5,78,0.00,FEW,,0.20,246.0,WeatherDisplay:10.37,2013-01-24 11:59:00,
2013-01-24 13:00:00,48.8,42.2,29.40,ENE,58,3.5,3.5,78,0.00,FEW,,0.20,246.0,WeatherDisplay:10.37,2013-01-24 12:00:00,
2013-01-24 13:01:00,48.9,42.3,29.40,ENE,58,4.0,4.0,78,0.00,FEW,,0.20,246.0,WeatherDisplay:10.37,2013-01-24 12:01:00,
2013-01-24 13:04:00,49.0,42.4,29.41,ENE,58,3.5,3.5,78,0.00,FEW,,0.20,221.0,WeatherDisplay:10.37,2013-01-24 12:04:00,
2013-01-24 13:05:00,49.1,42.5,29.40,ENE,58,3.5,3.5,78,0.00,FEW,,0.20,221.0,WeatherDisplay:10.37,2013-01-24 12:05:00,
2013-01-24 13:06:00,49.1,42.5,29.40,ENE,59,7.0,7.0,78,0.00,FEW,,0.20,213.0,WeatherDisplay:10.37,2013-01-24 12:06:00,
2013-01-24 13:09:00,49.1,42.2,29.40,ENE,59,3.5,3.5,77,0.00,FEW,,0.20,202.0,WeatherDisplay:10.37,2013-01-24 12:09:00,
2013-01-24 13:10:00,49.1,42.2,29.40,ENE,59,4.6,4.6,77,0.00,FEW,,0.20,206.0,WeatherDisplay:10.37,2013-01-24 12:10:00,
2013-01-24 13:11:00,49.1,42.2,29.40,ENE,59,4.6,4.6,77,0.00,FEW,,0.20,209.0,WeatherDisplay:10.37,2013-01-24 12:11:00,
2013-01-24 13:14:00,49.3,42.1,29.40,ENE,59,3.5,3.5,76,0.00,FEW,,0.20,192.0,WeatherDisplay:10.37,2013-01-24 12:14:00,
2013-01-24 13:15:00,49.3,42.1,29.40,ENE,59,3.5,3.5,76,0.00,FEW,,0.20,179.0,WeatherDisplay:10.37,2013-01-24 12:15:00,
2013-01-24 13:16:00,49.4,42.1,29.40,ENE,59,2.3,2.3,76,0.00,FEW,,0.20,179.0,WeatherDisplay:10.37,2013-01-24 12:16:00,
2013-01-24 13:19:00,49.5,42.2,29.40,ENE,59,2.3,2.3,76,0.00,FEW,,0.20,174.0,WeatherDisplay:10.37,2013-01-24 12:19:00,
2013-01-24 13:20:00,49.5,42.2,29.40,ENE,59,2.3,2.3,76,0.00,FEW,,0.20,174.0,WeatherDisplay:10.37,2013-01-24 12:20:00,
2013-01-24 13:21:00,49.6,42.3,29.40,ENE,59,3.5,3.5,76,0.00,FEW,,0.20,183.0,WeatherDisplay:10.37,2013-01-24 12:21:00,
2013-01-24 13:24:00,49.7,42.1,29.40,ENE,59,2.0,2.0,75,0.00,FEW,,0.20,178.0,WeatherDisplay:10.37,2013-01-24 12:24:00,
2013-01-24 13:25:00,49.7,42.1,29.40,ENE,59,3.5,3.5,75,0.00,FEW,,0.20,181.0,WeatherDisplay:10.37,2013-01-24 12:25:00,
2013-01-24 13:26:00,49.7,42.1,29.40,ENE,59,2.3,2.3,75,0.00,FEW,,0.20,172.0,WeatherDisplay:10.37,2013-01-24 12:26:00,
2013-01-24 13:29:00,49.8,42.2,29.40,ENE,59,1.1,0.0,75,0.00,FEW,,0.20,156.0,WeatherDisplay:10.37,2013-01-24 12:29:00,
2013-01-24 13:30:00,49.8,42.2,29.40,ENE,59,1.1,0.0,75,0.00,FEW,,0.20,151.0,WeatherDisplay:10.37,2013-01-24 12:30:00,
2013-01-24 13:32:00,49.9,42.3,29.40,ENE,59,0.0,0.0,75,0.00,FEW,,0.20,151.0,WeatherDisplay:10.37,2013-01-24 12:32:00,
2013-01-24 13:34:00,49.9,41.9,29.40,ENE,59,0.0,0.0,74,0.00,FEW,,0.20,149.0,WeatherDisplay:10.37,2013-01-24 12:34:00,
2013-01-24 13:35:00,49.9,41.9,29.40,ENE,59,0.0,0.0,74,0.00,FEW,,0.20,149.0,WeatherDisplay:10.37,2013-01-24 12:35:00,
2013-01-24 13:37:00,49.9,41.9,29.40,ENE,59,2.3,2.3,74,0.00,FEW,,0.20,149.0,WeatherDisplay:10.37,2013-01-24 12:37:00,
2013-01-24 13:40:00,50.0,41.7,29.40,ENE,59,2.3,0.0,73,0.00,FEW,,0.20,144.0,WeatherDisplay:10.37,2013-01-24 12:40:00,
2013-01-24 13:42:00,50.0,41.7,29.40,ENE,59,0.0,0.0,73,0.00,FEW,,0.20,144.0,WeatherDisplay:10.37,2013-01-24 12:42:00,
2013-01-24 13:45:00,50.1,41.4,29.40,ENE,59,0.0,0.0,72,0.00,FEW,,0.20,142.0,WeatherDisplay:10.37,2013-01-24 12:45:00,
2013-01-24 13:47:00,50.2,41.5,29.40,ENE,59,0.0,0.0,72,0.00,FEW,,0.20,142.0,WeatherDisplay:10.37,2013-01-24 12:47:00,
2013-01-24 13:50:00,50.3,41.6,29.39,ENE,59,0.0,0.0,72,0.00,FEW,,0.20,144.0,WeatherDisplay:10.37,2013-01-24 12:50:00,
2013-01-24 13:52:00,50.4,41.7,29.40,ENE,59,0.0,0.0,72,0.00,FEW,,0.20,144.0,WeatherDisplay:10.37,2013-01-24 12:52:00,
2013-01-24 13:55:00,50.5,41.8,29.39,ENE,59,0.0,0.0,72,0.00,FEW,,0.20,144.0,WeatherDisplay:10.37,2013-01-24 12:55:00,
2013-01-24 13:56:00,50.5,41.8,29.39,ENE,59,0.0,0.0,72,0.00,FEW,,0.20,144.0,WeatherDisplay:10.37,2013-01-24 12:56:00,
2013-01-24 13:57:00,50.5,41.8,29.39,ENE,59,2.3,2.3,72,0.00,FEW,,0.20,146.0,WeatherDisplay:10.37,2013-01-24 12:57:00,
2013-01-24 14:00:00,50.5,41.4,29.39,ENE,59,3.5,3.5,71,0.00,FEW,,0.20,151.0,WeatherDisplay:10.37,2013-01-24 13:00:00,
2013-01-24 14:01:00,50.5,41.4,29.39,ENE,59,3.5,3.5,71,0.00,FEW,,0.20,153.0,WeatherDisplay:10.37,2013-01-24 13:01:00,
2013-01-24 14:02:00,50.4,41.3,29.39,ENE,59,2.3,0.0,71,0.00,FEW,,0.20,155.0,WeatherDisplay:10.37,2013-01-24 13:02:00,
2013-01-24 14:05:00,50.5,41.4,29.39,ENE,59,2.3,2.3,71,0.00,FEW,,0.20,160.0,WeatherDisplay:10.37,2013-01-24 13:05:00,
2013-01-24 14:06:00,50.5,41.4,29.39,ENE,59,3.0,3.0,71,0.00,FEW,,0.20,162.0,WeatherDisplay:10.37,2013-01-24 13:06:00,
2013-01-24 14:07:00,50.5,41.4,29.39,ENE,59,3.5,3.5,71,0.00,FEW,,0.20,163.0,WeatherDisplay:10.37,2013-01-24 13:07:00,
2013-01-24 14:11:00,50.5,41.1,29.39,ENE,59,1.1,0.0,70,0.00,FEW,,0.20,172.0,WeatherDisplay:10.37,2013-01-24 13:11:00,
2013-01-24 14:12:00,50.5,41.4,29.39,ENE,59,0.0,0.0,71,0.00,FEW,,0.20,178.0,WeatherDisplay:10.37,2013-01-24 13:12:00,
2013-01-24 14:24:00,50.9,41.8,29.39,NE,40,3.5,4.0,71,0.00,RA,,0.20,234.0,WeatherDisplay:10.37,2013-01-24 13:24:00,
2013-01-24 14:29:00,50.8,41.4,29.40,WNW,302,4.0,4.0,70,0.00,RA,,0.20,241.0,WeatherDisplay:10.37,2013-01-24 13:29:00,
2013-01-24 14:34:00,50.8,41.0,29.40,WNW,302,3.5,3.5,69,0.00,RA,,0.20,253.0,WeatherDisplay:10.37,2013-01-24 13:34:00,
2013-01-24 14:35:00,50.8,41.0,29.40,WNW,302,2.3,2.3,69,0.00,FEW,,0.20,253.0,WeatherDisplay:10.37,2013-01-24 13:35:00,
2013-01-24 14:39:00,51.1,41.3,29.40,WNW,298,3.0,3.0,69,0.00,FEW,,0.20,464.0,WeatherDisplay:10.37,2013-01-24 13:39:00,
2013-01-24 14:40:00,51.2,41.4,29.40,WNW,298,3.5,3.5,69,0.00,FEW,,0.20,464.0,WeatherDisplay:10.37,2013-01-24 13:40:00,
2013-01-24 14:44:00,51.9,42.0,29.40,WSW,257,4.0,4.2,69,0.00,CLR,,0.20,438.0,WeatherDisplay:10.37,2013-01-24 13:44:00,
2013-01-24 14:45:00,52.0,42.5,29.40,WSW,257,6.9,6.9,70,0.00,CLR,,0.20,438.0,WeatherDisplay:10.37,2013-01-24 13:45:00,
2013-01-24 14:49:00,52.3,42.0,29.40,West,259,4.0,4.0,68,0.00,CLR,,0.20,434.0,WeatherDisplay:10.37,2013-01-24 13:49:00,
2013-01-24 14:50:00,52.3,42.4,29.40,West,264,3.5,3.5,69,0.00,CLR,,0.20,429.0,WeatherDisplay:10.37,2013-01-24 13:50:00,
2013-01-24 14:54:00,52.7,42.8,29.40,WSW,252,6.9,6.9,69,0.00,CLR,,0.20,410.0,WeatherDisplay:10.37,2013-01-24 13:54:00,
2013-01-24 14:55:00,52.7,42.8,29.40,WSW,252,6.9,6.9,69,0.00,CLR,,0.20,403.0,WeatherDisplay:10.37,2013-01-24 13:55:00,
2013-01-24 14:59:00,52.7,42.0,29.40,West,275,8.1,8.1,67,0.00,CLR,,0.20,388.0,WeatherDisplay:10.37,2013-01-24 13:59:00,
2013-01-24 15:00:00,52.7,42.0,29.40,West,274,8.1,8.1,67,0.00,CLR,,0.20,190.0,WeatherDisplay:10.37,2013-01-24 14:00:00,
2013-01-24 15:01:00,52.6,41.9,29.40,West,275,6.9,6.9,67,0.00,CLR,,0.20,190.0,WeatherDisplay:10.37,2013-01-24 14:01:00,
2013-01-24 15:04:00,52.3,41.7,29.40,West,280,5.8,5.8,67,0.00,CLR,,0.20,381.0,WeatherDisplay:10.37,2013-01-24 14:04:00,
2013-01-24 15:05:00,52.3,41.7,29.40,West,279,5.8,5.8,67,0.00,CLR,,0.20,392.0,WeatherDisplay:10.37,2013-01-24 14:05:00,
2013-01-24 15:06:00,52.3,41.7,29.40,West,279,5.8,5.8,67,0.00,CLR,,0.20,404.0,WeatherDisplay:10.37,2013-01-24 14:06:00,
2013-01-24 15:10:00,52.1,41.5,29.40,WSW,253,8.1,8.1,67,0.00,CLR,,0.20,221.0,WeatherDisplay:10.37,2013-01-24 14:10:00,
2013-01-24 15:11:00,52.0,41.4,29.41,WSW,241,8.1,8.1,67,0.00,FEW,,0.20,200.0,WeatherDisplay:10.37,2013-01-24 14:11:00,
2013-01-24 15:15:00,51.9,41.7,29.41,WSW,256,8.1,8.1,68,0.00,FEW,,0.20,264.0,WeatherDisplay:10.37,2013-01-24 14:15:00,
2013-01-24 15:16:00,51.9,41.7,29.41,WSW,254,6.9,6.9,68,0.00,FEW,,0.20,156.0,WeatherDisplay:10.37,2013-01-24 14:16:00,
2013-01-24 15:20:00,51.7,41.9,29.41,West,259,8.1,8.1,69,0.00,FEW,,0.20,311.0,WeatherDisplay:10.37,2013-01-24 14:20:00,
2013-01-24 15:21:00,51.7,41.9,29.41,West,259,8.1,8.1,69,0.00,FEW,,0.20,311.0,WeatherDisplay:10.37,2013-01-24 14:21:00,
2013-01-24 15:25:00,51.7,41.9,29.40,West,278,7.0,7.0,69,0.00,FEW,,0.20,227.0,WeatherDisplay:10.37,2013-01-24 14:25:00,
2013-01-24 15:26:00,51.7,41.9,29.40,West,278,7.0,7.0,69,0.00,FEW,,0.20,227.0,WeatherDisplay:10.37,2013-01-24 14:26:00,
2013-01-24 15:30:00,51.8,42.3,29.40,SW,230,4.0,4.0,70,0.00,FEW,,0.20,193.0,WeatherDisplay:10.37,2013-01-24 14:30:00,
2013-01-24 15:31:00,51.8,42.3,29.40,SW,230,3.5,3.5,70,0.00,FEW,,0.20,193.0,WeatherDisplay:10.37,2013-01-24 14:31:00,
2013-01-24 15:36:00,51.8,42.3,29.40,WSW,258,5.0,5.0,70,0.00,FEW,,0.20,192.0,WeatherDisplay:10.37,2013-01-24 14:36:00,
2013-01-24 15:41:00,51.6,41.8,29.40,WSW,242,3.5,3.5,69,0.00,FEW,,0.20,107.0,WeatherDisplay:10.37,2013-01-24 14:41:00,
2013-01-24 15:46:00,51.5,42.0,29.40,WSW,237,3.5,3.5,70,0.00,SCT,,0.20,46.0,WeatherDisplay:10.37,2013-01-24 14:46:00,
2013-01-24 15:51:00,51.4,41.9,29.40,WSW,237,3.5,3.5,70,0.00,SCT,,0.20,83.0,WeatherDisplay:10.37,2013-01-24 14:51:00,
2013-01-24 15:56:00,51.5,42.4,29.40,WSW,237,3.0,3.0,71,0.00,FEW,,0.20,174.0,WeatherDisplay:10.37,2013-01-24 14:56:00,
2013-01-24 15:57:00,51.5,42.8,29.40,SW,236,4.0,4.0,72,0.00,FEW,,0.20,171.0,WeatherDisplay:10.37,2013-01-24 14:57:00,
2013-01-24 16:01:00,51.9,43.2,29.40,SW,235,3.5,3.5,72,0.00,FEW,,0.20,146.0,WeatherDisplay:10.37,2013-01-24 15:01:00,
2013-01-24 16:02:00,51.9,43.2,29.40,SW,231,4.6,4.6,72,0.00,FEW,,0.20,146.0,WeatherDisplay:10.37,2013-01-24 15:02:00,
2013-01-24 16:06:00,51.8,42.7,29.41,SW,228,3.5,3.5,71,0.00,FEW,,0.20,88.0,WeatherDisplay:10.37,2013-01-24 15:06:00,
2013-01-24 16:07:00,51.7,42.6,29.41,SW,228,3.5,3.5,71,0.00,FEW,,0.20,88.0,WeatherDisplay:10.37,2013-01-24 15:07:00,
2013-01-24 16:11:00,51.7,42.6,29.41,SW,215,4.6,4.6,71,0.00,FEW,,0.20,62.0,WeatherDisplay:10.37,2013-01-24 15:11:00,
2013-01-24 16:12:00,51.7,42.6,29.41,SW,215,5.8,5.8,71,0.00,FEW,,0.20,58.0,WeatherDisplay:10.37,2013-01-24 15:12:00,
2013-01-24 16:16:00,51.5,42.8,29.41,SW,217,3.5,3.5,72,0.00,SCT,,0.20,53.0,WeatherDisplay:10.37,2013-01-24 15:16:00,
2013-01-24 16:17:00,51.5,42.8,29.41,SW,217,3.5,3.5,72,0.00,SCT,,0.20,51.0,WeatherDisplay:10.37,2013-01-24 15:17:00,
2013-01-24 16:21:00,51.4,43.0,29.41,WSW,245,4.6,4.6,73,0.00,SCT,,0.20,40.0,WeatherDisplay:10.37,2013-01-24 15:21:00,
2013-01-24 16:22:00,51.4,43.0,29.41,WSW,245,3.5,3.5,73,0.00,SCT,,0.20,40.0,WeatherDisplay:10.37,2013-01-24 15:22:00,
2013-01-24 16:26:00,51.2,42.8,29.42,West,272,7.0,7.0,73,0.00,SCT,,0.20,32.0,WeatherDisplay:10.37,2013-01-24 15:26:00,
2013-01-24 16:27:00,51.2,42.8,29.42,WSW,254,9.2,9.2,73,0.00,SCT,,0.20,30.0,WeatherDisplay:10.37,2013-01-24 15:27:00,
2013-01-24 16:31:00,50.9,42.9,29.42,WNW,285,7.0,7.0,74,0.00,SCT,,0.20,26.0,WeatherDisplay:10.37,2013-01-24 15:31:00,
2013-01-24 16:32:00,50.9,42.9,29.42,WNW,284,6.9,6.9,74,0.00,SCT,,0.20,19.0,WeatherDisplay:10.37,2013-01-24 15:32:00,
2013-01-24 16:33:00,50.9,42.9,29.42,WNW,284,5.8,5.8,74,0.00,SCT,,0.20,19.0,WeatherDisplay:10.37,2013-01-24 15:33:00,
2013-01-24 16:36:00,50.7,42.7,29.42,West,266,6.9,6.9,74,0.00,BKN,,0.20,14.0,WeatherDisplay:10.37,2013-01-24 15:36:00,
2013-01-24 16:37:00,50.6,42.6,29.42,West,275,6.9,6.9,74,0.00,BKN,,0.20,14.0,WeatherDisplay:10.37,2013-01-24 15:37:00,
2013-01-24 16:38:00,50.6,42.6,29.42,West,273,6.9,6.9,74,0.00,BKN,,0.20,12.0,WeatherDisplay:10.37,2013-01-24 15:38:00,
2013-01-24 16:41:00,50.4,42.4,29.41,West,274,3.5,3.5,74,0.00,BKN,,0.20,18.0,WeatherDisplay:10.37,2013-01-24 15:41:00,
2013-01-24 16:42:00,50.4,42.4,29.42,West,274,3.5,3.5,74,0.00,BKN,,0.20,19.0,WeatherDisplay:10.37,2013-01-24 15:42:00,
2013-01-24 16:43:00,50.4,42.4,29.42,West,274,4.0,4.0,74,0.00,BKN,,0.20,19.0,WeatherDisplay:10.37,2013-01-24 15:43:00,
2013-01-24 16:46:00,50.3,42.3,29.42,West,274,3.5,3.5,74,0.00,BKN,,0.20,18.0,WeatherDisplay:10.37,2013-01-24 15:46:00,
2013-01-24 16:47:00,50.3,42.3,29.42,West,274,3.5,3.5,74,0.00,BKN,,0.20,16.0,WeatherDisplay:10.37,2013-01-24 15:47:00,
2013-01-24 16:48:00,50.3,42.3,29.42,West,274,3.5,3.5,74,0.00,BKN,,0.20,16.0,WeatherDisplay:10.37,2013-01-24 15:48:00,
2013-01-24 16:52:00,50.2,42.6,29.42,West,275,5.8,5.8,75,0.00,BKN,,0.20,12.0,WeatherDisplay:10.37,2013-01-24 15:52:00,
2013-01-24 16:53:00,50.2,42.6,29.42,West,275,5.8,5.8,75,0.00,BKN,,0.20,12.0,WeatherDisplay:10.37,2013-01-24 15:53:00,
2013-01-24 16:57:00,50.0,42.7,29.42,West,275,4.0,4.0,76,0.00,BKN,,0.20,9.0,WeatherDisplay:10.37,2013-01-24 15:57:00,
2013-01-24 16:58:00,50.0,42.7,29.42,West,275,3.5,3.5,76,0.00,BKN,,0.20,7.0,WeatherDisplay:10.37,2013-01-24 15:58:00,
2013-01-24 16:59:00,50.0,42.7,29.42,West,275,3.5,3.5,76,0.00,BKN,,0.20,7.0,WeatherDisplay:10.37,2013-01-24 15:59:00,
2013-01-24 17:02:00,50.0,42.7,29.42,West,275,3.5,3.5,76,0.00,BKN,,0.20,5.0,WeatherDisplay:10.37,2013-01-24 16:02:00,
2013-01-24 17:03:00,50.0,42.7,29.42,West,275,0.0,0.0,76,0.00,BKN,,0.20,5.0,WeatherDisplay:10.37,2013-01-24 16:03:00,
2013-01-24 17:04:00,50.0,42.7,29.41,West,275,0.0,0.0,76,0.00,BKN,,0.20,5.0,WeatherDisplay:10.37,2013-01-24 16:04:00,
2013-01-24 17:07:00,49.9,42.6,29.42,West,275,2.3,2.3,76,0.00,BKN,,0.20,0.0,WeatherDisplay:10.37,2013-01-24 16:07:00,
2013-01-24 17:08:00,49.9,42.6,29.42,West,275,2.0,2.0,76,0.00,BKN,,0.20,0.0,WeatherDisplay:10.37,2013-01-24 16:08:00,
2013-01-24 17:09:00,49.9,42.6,29.42,West,275,3.5,3.5,76,0.00,BKN,,0.20,0.0,WeatherDisplay:10.37,2013-01-24 16:09:00,
2013-01-24 17:12:00,49.8,42.9,29.42,West,275,1.1,0.0,77,0.00,BKN,,0.20,0.0,WeatherDisplay:10.37,2013-01-24 16:12:00,
2013-01-24 17:13:00,49.8,42.9,29.42,West,275,0.0,0.0,77,0.00,BKN,,0.20,0.0,WeatherDisplay:10.37,2013-01-24 16:13:00,
2013-01-24 17:14:00,49.8,42.9,29.42,West,275,0.0,0.0,77,0.00,BKN,,0.20,0.0,WeatherDisplay:10.37,2013-01-24 16:14:00,
2013-01-24 17:17:00,49.7,42.8,29.42,West,275,3.5,3.5,77,0.00,OVC,,0.20,0.0,WeatherDisplay:10.37,2013-01-24 16:17:00,
2013-01-24 17:18:00,49.7,42.8,29.42,West,275,4.0,4.0,77,0.00,OVC,,0.20,0.0,WeatherDisplay:10.37,2013-01-24 16:18:00,
2013-01-24 17:19:00,49.7,42.8,29.42,West,275,3.5,3.5,77,0.00,OVC,,0.20,0.0,WeatherDisplay:10.37,2013-01-24 16:19:00,
2013-01-24 17:22:00,49.6,43.0,29.43,West,275,3.5,3.5,78,0.00,OVC,,0.20,0.0,WeatherDisplay:10.37,2013-01-24 16:22:00,
2013-01-24 17:23:00,49.6,43.0,29.43,West,274,3.5,3.5,78,0.00,OVC,,0.20,0.0,WeatherDisplay:10.37,2013-01-24 16:23:00,
2013-01-24 17:24:00,49.6,43.0,29.43,West,274,3.5,3.5,78,0.00,OVC,,0.20,0.0,WeatherDisplay:10.37,2013-01-24 16:24:00,
2013-01-24 17:27:00,49.6,43.0,29.43,West,274,3.5,3.5,78,0.00,OVC,,0.20,0.0,WeatherDisplay:10.37,2013-01-24 16:27:00,
2013-01-24 17:28:00,49.6,43.0,29.43,West,274,3.5,3.5,78,0.00,OVC,,0.20,0.0,WeatherDisplay:10.37,2013-01-24 16:28:00,
2013-01-24 17:29:00,49.5,42.9,29.43,West,274,3.5,3.5,78,0.00,OVC,,0.20,0.0,WeatherDisplay:10.37,2013-01-24 16:29:00,
2013-01-24 17:32:00,49.5,43.3,29.43,West,263,4.0,4.0,79,0.00,OVC,,0.20,0.0,WeatherDisplay:10.37,2013-01-24 16:32:00,
2013-01-24 17:33:00,49.4,43.2,29.43,West,263,3.5,3.5,79,0.00,OVC,,0.20,0.0,WeatherDisplay:10.37,2013-01-24 16:33:00,
2013-01-24 17:34:00,49.4,43.2,29.43,West,263,3.5,3.5,79,0.00,OVC,,0.20,0.0,WeatherDisplay:10.37,2013-01-24 16:34:00,
2013-01-24 17:38:00,49.3,43.1,29.43,West,263,3.5,3.5,79,0.00,OVC,,0.20,0.0,WeatherDisplay:10.37,2013-01-24 16:38:00,
2013-01-24 17:39:00,49.3,43.1,29.43,West,263,3.5,3.5,79,0.00,OVC,,0.20,0.0,WeatherDisplay:10.37,2013-01-24 16:39:00,
2013-01-24 17:43:00,49.3,43.1,29.43,West,263,3.5,3.5,79,0.00,OVC,,0.20,0.0,WeatherDisplay:10.37,2013-01-24 16:43:00,
2013-01-24 17:45:00,49.2,43.0,29.44,West,263,4.0,4.0,79,0.00,OVC,,0.20,0.0,WeatherDisplay:10.37,2013-01-24 16:45:00,
2013-01-24 17:48:00,49.1,42.9,29.44,West,263,3.5,3.5,79,0.00,OVC,,0.20,0.0,WeatherDisplay:10.37,2013-01-24 16:48:00,
2013-01-24 17:50:00,49.1,43.2,29.44,West,261,3.5,3.5,80,0.00,OVC,,0.20,0.0,WeatherDisplay:10.37,2013-01-24 16:50:00,
2013-01-24 17:53:00,49.1,43.2,29.44,West,260,5.0,5.0,80,0.00,OVC,,0.20,0.0,WeatherDisplay:10.37,2013-01-24 16:53:00,
2013-01-24 17:54:00,49.1,43.2,29.44,WSW,249,5.0,5.0,80,0.00,OVC,,0.20,0.0,WeatherDisplay:10.37,2013-01-24 16:54:00,
2013-01-24 17:55:00,49.0,43.1,29.44,WSW,244,5.8,5.8,80,0.00,OVC,,0.20,0.0,WeatherDisplay:10.37,2013-01-24 16:55:00,
2013-01-24 17:58:00,48.9,43.0,29.44,WSW,245,4.6,4.6,80,0.00,OVC,,0.20,0.0,WeatherDisplay:10.37,2013-01-24 16:58:00,
2013-01-24 17:59:00,49.0,43.1,29.44,WSW,245,4.0,4.0,80,0.00,OVC,,0.20,0.0,WeatherDisplay:10.37,2013-01-24 16:59:00,
2013-01-24 18:00:00,48.9,43.0,29.45,WSW,245,4.6,4.6,80,0.00,OVC,,0.20,0.0,WeatherDisplay:10.37,2013-01-24 17:00:00,
2013-01-24 18:03:00,48.9,43.0,29.45,WSW,245,3.5,3.5,80,0.00,CLR,,0.20,0.0,WeatherDisplay:10.37,2013-01-24 17:03:00,
2013-01-24 18:04:00,48.9,43.3,29.45,WSW,245,3.5,3.5,81,0.00,CLR,,0.20,0.0,WeatherDisplay:10.37,2013-01-24 17:04:00,
2013-01-24 18:06:00,48.9,43.3,29.45,WSW,245,3.5,3.5,81,0.00,CLR,,0.20,0.0,WeatherDisplay:10.37,2013-01-24 17:06:00,
2013-01-24 18:08:00,48.8,43.2,29.45,WSW,244,3.5,3.5,81,0.00,CLR,,0.20,0.0,WeatherDisplay:10.37,2013-01-24 17:08:00,
2013-01-24 18:09:00,48.8,43.2,29.45,WSW,244,4.0,4.0,81,0.00,CLR,,0.20,0.0,WeatherDisplay:10.37,2013-01-24 17:09:00,
2013-01-24 18:12:00,48.7,43.1,29.45,WSW,244,3.5,3.5,81,0.00,CLR,,0.20,0.0,WeatherDisplay:10.37,2013-01-24 17:12:00,
2013-01-24 18:13:00,48.7,43.1,29.45,WSW,244,3.5,3.5,81,0.00,CLR,,0.20,0.0,WeatherDisplay:10.37,2013-01-24 17:13:00,
2013-01-24 18:14:00,48.7,43.1,29.45,WSW,244,3.5,3.5,81,0.00,CLR,,0.20,0.0,WeatherDisplay:10.37,2013-01-24 17:14:00,
2013-01-24 18:17:00,48.7,43.1,29.46,WSW,244,2.3,2.3,81,0.00,CLR,,0.20,0.0,WeatherDisplay:10.37,2013-01-24 17:17:00,
2013-01-24 18:19:00,48.7,43.1,29.45,WSW,244,0.0,0.0,81,0.00,CLR,,0.20,0.0,WeatherDisplay:10.37,2013-01-24 17:19:00,
2013-01-24 18:22:00,48.6,43.4,29.46,WSW,244,1.1,0.0,82,0.00,CLR,,0.20,0.0,WeatherDisplay:10.37,2013-01-24 17:22:00,
2013-01-24 18:24:00,48.6,43.4,29.46,WSW,244,0.0,0.0,82,0.00,CLR,,0.20,0.0,WeatherDisplay:10.37,2013-01-24 17:24:00,
2013-01-24 18:25:00,48.6,43.4,29.46,WSW,244,0.0,0.0,82,0.00,CLR,,0.21,0.0,WeatherDisplay:10.37,2013-01-24 17:25:00,
2013-01-24 18:27:00,48.6,43.4,29.46,WSW,244,1.0,1.0,82,0.01,RA,,0.21,0.0,WeatherDisplay:10.37,2013-01-24 17:27:00,
2013-01-24 18:29:00,48.6,43.4,29.45,SSW,206,4.0,4.0,82,0.01,RA,,0.21,0.0,WeatherDisplay:10.37,2013-01-24 17:29:00,
2013-01-24 18:30:00,48.6,43.4,29.46,SSW,204,5.8,5.8,82,0.01,RA,,0.21,0.0,WeatherDisplay:10.37,2013-01-24 17:30:00,
2013-01-24 18:32:00,48.5,43.3,29.46,SW,236,4.6,4.6,82,0.01,RA,,0.21,0.0,WeatherDisplay:10.37,2013-01-24 17:32:00,
2013-01-24 18:34:00,48.5,43.3,29.46,West,271,5.8,5.8,82,0.01,RA,,0.21,0.0,WeatherDisplay:10.37,2013-01-24 17:34:00,
2013-01-24 18:35:00,48.5,43.3,29.46,West,271,6.9,6.9,82,0.01,RA,,0.21,0.0,WeatherDisplay:10.37,2013-01-24 17:35:00,
2013-01-24 18:37:00,48.4,43.2,29.46,West,264,3.5,3.5,82,0.01,,,0.21,0.0,WeatherDisplay:10.37,2013-01-24 17:37:00,
2013-01-24 18:39:00,48.3,43.4,29.46,West,264,3.5,3.5,83,0.01,CLR,,0.21,0.0,WeatherDisplay:10.37,2013-01-24 17:39:00,
2013-01-24 18:40:00,48.3,43.4,29.46,West,264,3.5,3.5,83,0.01,CLR,,0.21,0.0,WeatherDisplay:10.37,2013-01-24 17:40:00,
2013-01-24 18:42:00,48.2,43.3,29.46,West,264,2.3,2.3,83,0.01,CLR,,0.21,0.0,WeatherDisplay:10.37,2013-01-24 17:42:00,
2013-01-24 18:44:00,48.2,43.3,29.46,West,264,1.1,0.0,83,0.01,CLR,,0.21,0.0,WeatherDisplay:10.37,2013-01-24 17:44:00,
2013-01-24 18:45:00,48.2,43.3,29.46,West,264,0.0,0.0,83,0.01,CLR,,0.21,0.0,WeatherDisplay:10.37,2013-01-24 17:45:00,
2013-01-24 18:47:00,48.1,43.2,29.46,West,264,0.0,0.0,83,0.01,CLR,,0.21,0.0,WeatherDisplay:10.37,2013-01-24 17:47:00,
2013-01-24 18:49:00,48.1,43.2,29.46,West,264,0.0,0.0,83,0.01,CLR,,0.21,0.0,WeatherDisplay:10.37,2013-01-24 17:49:00,
2013-01-24 18:50:00,48.1,43.2,29.46,West,264,0.0,0.0,83,0.01,CLR,,0.21,0.0,WeatherDisplay:10.37,2013-01-24 17:50:00,
2013-01-24 18:52:00,48.0,43.1,29.46,West,264,0.0,0.0,83,0.01,CLR,,0.21,0.0,WeatherDisplay:10.37,2013-01-24 17:52:00,
2013-01-24 18:54:00,48.0,43.1,29.46,West,264,0.0,0.0,83,0.01,CLR,,0.21,0.0,WeatherDisplay:10.37,2013-01-24 17:54:00,
2013-01-24 18:55:00,47.9,43.0,29.47,West,264,0.0,0.0,83,0.01,CLR,,0.21,0.0,WeatherDisplay:10.37,2013-01-24 17:55:00,
2013-01-24 18:57:00,47.8,42.9,29.47,West,264,3.5,3.5,83,0.01,CLR,,0.21,0.0,WeatherDisplay:10.37,2013-01-24 17:57:00,
2013-01-24 18:59:00,47.8,42.9,29.47,West,263,3.5,3.5,83,0.01,CLR,,0.21,0.0,WeatherDisplay:10.37,2013-01-24 17:59:00,
2013-01-24 19:01:00,47.7,42.8,29.47,West,262,3.5,3.5,83,0.01,CLR,,0.21,0.0,WeatherDisplay:10.37,2013-01-24 18:01:00,
2013-01-24 19:03:00,47.7,42.8,29.47,West,262,3.5,3.5,83,0.01,CLR,,0.21,0.0,WeatherDisplay:10.37,2013-01-24 18:03:00,
2013-01-24 19:04:00,47.6,42.7,29.47,West,262,0.0,0.0,83,0.01,CLR,,0.21,0.0,WeatherDisplay:10.37,2013-01-24 18:04:00,
2013-01-24 19:06:00,47.6,42.7,29.47,West,262,0.0,0.0,83,0.01,CLR,,0.21,0.0,WeatherDisplay:10.37,2013-01-24 18:06:00,
2013-01-24 19:08:00,47.5,42.6,29.47,West,262,0.0,0.0,83,0.01,CLR,,0.21,0.0,WeatherDisplay:10.37,2013-01-24 18:08:00,
2013-01-24 19:09:00,47.5,42.6,29.47,West,262,0.0,0.0,83,0.01,CLR,,0.21,0.0,WeatherDisplay:10.37,2013-01-24 18:09:00,
2013-01-24 19:11:00,47.4,42.5,29.47,West,262,0.0,0.0,83,0.01,CLR,,0.21,0.0,WeatherDisplay:10.37,2013-01-24 18:11:00,
2013-01-24 19:13:00,47.3,42.4,29.47,West,262,1.1,1.1,83,0.01,CLR,,0.21,0.0,WeatherDisplay:10.37,2013-01-24 18:13:00,
2013-01-24 19:15:00,47.3,42.4,29.47,West,262,0.0,0.0,83,0.01,CLR,,0.21,0.0,WeatherDisplay:10.37,2013-01-24 18:15:00,
2013-01-24 19:16:00,47.3,42.4,29.47,West,262,0.0,0.0,83,0.01,CLR,,0.21,0.0,WeatherDisplay:10.37,2013-01-24 18:16:00,
2013-01-24 19:18:00,47.2,42.3,29.47,West,262,0.0,0.0,83,0.01,CLR,,0.21,0.0,WeatherDisplay:10.37,2013-01-24 18:18:00,
2013-01-24 19:20:00,47.2,42.3,29.47,West,262,0.0,0.0,83,0.01,CLR,,0.21,0.0,WeatherDisplay:10.37,2013-01-24 18:20:00,
2013-01-24 19:21:00,47.1,42.2,29.47,West,262,2.3,2.3,83,0.01,CLR,,0.21,0.0,WeatherDisplay:10.37,2013-01-24 18:21:00,
2013-01-24 19:22:00,47.1,42.2,29.47,West,262,2.3,2.3,83,0.01,CLR,,0.21,0.0,WeatherDisplay:10.37,2013-01-24 18:22:00,
2013-01-24 19:23:00,47.1,42.2,29.47,West,262,0.0,0.0,83,0.01,CLR,,0.21,0.0,WeatherDisplay:10.37,2013-01-24 18:23:00,
2013-01-24 19:25:00,47.1,42.2,29.47,West,262,0.0,0.0,83,0.01,CLR,,0.21,0.0,WeatherDisplay:10.37,2013-01-24 18:25:00,
2013-01-24 19:27:00,47.0,42.1,29.47,West,262,0.0,0.0,83,0.01,CLR,,0.21,0.0,WeatherDisplay:10.37,2013-01-24 18:27:00,
2013-01-24 19:29:00,46.9,42.0,29.47,West,262,0.0,0.0,83,0.00,CLR,,0.21,0.0,WeatherDisplay:10.37,2013-01-24 18:29:00,
2013-01-24 19:30:00,46.9,42.0,29.47,West,262,0.0,0.0,83,0.00,CLR,,0.21,0.0,WeatherDisplay:10.37,2013-01-24 18:30:00,
2013-01-24 19:32:00,46.9,42.0,29.47,West,262,0.0,0.0,83,0.00,CLR,,0.21,0.0,WeatherDisplay:10.37,2013-01-24 18:32:00,
2013-01-24 19:34:00,46.9,42.0,29.47,West,262,0.0,0.0,83,0.00,CLR,,0.21,0.0,WeatherDisplay:10.37,2013-01-24 18:34:00,
2013-01-24 19:35:00,46.9,42.0,29.47,West,262,0.0,0.0,83,0.00,CLR,,0.21,0.0,WeatherDisplay:10.37,2013-01-24 18:35:00,
2013-01-24 19:37:00,46.9,42.0,29.47,West,262,0.0,0.0,83,0.00,CLR,,0.21,0.0,WeatherDisplay:10.37,2013-01-24 18:37:00,
2013-01-24 19:39:00,46.9,42.0,29.47,West,262,3.5,3.5,83,0.00,CLR,,0.21,0.0,WeatherDisplay:10.37,2013-01-24 18:39:00,
2013-01-24 19:40:00,46.9,42.0,29.47,ENE,76,3.5,3.5,83,0.00,CLR,,0.21,0.0,WeatherDisplay:10.37,2013-01-24 18:40:00,
2013-01-24 19:42:00,46.9,42.3,29.47,ENE,76,3.5,3.5,84,0.00,CLR,,0.21,0.0,WeatherDisplay:10.37,2013-01-24 18:42:00,
2013-01-24 19:44:00,46.9,42.3,29.47,East,82,3.0,3.0,84,0.00,CLR,,0.21,0.0,WeatherDisplay:10.37,2013-01-24 18:44:00,
2013-01-24 19:45:00,46.9,42.3,29.47,East,81,3.5,3.5,84,0.00,CLR,,0.21,0.0,WeatherDisplay:10.37,2013-01-24 18:45:00,
2013-01-24 19:47:00,46.9,42.3,29.47,East,81,4.6,4.6,84,0.00,CLR,,0.21,0.0,WeatherDisplay:10.37,2013-01-24 18:47:00,
2013-01-24 19:49:00,46.9,42.3,29.47,East,81,3.5,3.5,84,0.00,CLR,,0.21,0.0,WeatherDisplay:10.37,2013-01-24 18:49:00,
2013-01-24 19:51:00,46.9,42.3,29.47,East,81,2.3,0.0,84,0.00,CLR,,0.21,0.0,WeatherDisplay:10.37,2013-01-24 18:51:00,
2013-01-24 19:53:00,46.9,42.3,29.47,East,81,3.5,3.5,84,0.00,CLR,,0.21,0.0,WeatherDisplay:10.37,2013-01-24 18:53:00,
2013-01-24 19:54:00,46.9,42.3,29.47,East,81,4.6,4.6,84,0.00,CLR,,0.21,0.0,WeatherDisplay:10.37,2013-01-24 18:54:00,
2013-01-24 19:56:00,46.8,42.2,29.47,East,82,3.5,3.5,84,0.00,CLR,,0.21,0.0,WeatherDisplay:10.37,2013-01-24 18:56:00,
2013-01-24 19:58:00,46.8,42.2,29.47,East,82,2.3,2.3,84,0.00,CLR,,0.21,0.0,WeatherDisplay:10.37,2013-01-24 18:58:00,
2013-01-24 19:59:00,46.8,42.2,29.47,East,82,2.3,0.0,84,0.00,CLR,,0.21,0.0,WeatherDisplay:10.37,2013-01-24 18:59:00,
2013-01-24 20:01:00,46.8,42.2,29.47,East,82,0.0,0.0,84,0.00,CLR,,0.21,0.0,WeatherDisplay:10.37,2013-01-24 19:01:00,
2013-01-24 20:03:00,46.8,42.5,29.47,East,82,0.0,0.0,85,0.00,CLR,,0.21,0.0,WeatherDisplay:10.37,2013-01-24 19:03:00,
2013-01-24 20:04:00,46.8,42.5,29.47,East,82,0.0,0.0,85,0.00,CLR,,0.21,0.0,WeatherDisplay:10.37,2013-01-24 19:04:00,
2013-01-24 20:06:00,46.8,42.5,29.47,East,82,0.0,0.0,85,0.00,CLR,,0.21,0.0,WeatherDisplay:10.37,2013-01-24 19:06:00,
2013-01-24 20:08:00,46.8,42.5,29.47,East,82,0.0,0.0,85,0.00,CLR,,0.21,0.0,WeatherDisplay:10.37,2013-01-24 19:08:00,
2013-01-24 20:09:00,46.8,42.5,29.47,East,82,0.0,0.0,85,0.00,CLR,,0.21,0.0,WeatherDisplay:10.37,2013-01-24 19:09:00,
2013-01-24 20:11:00,46.8,42.5,29.47,East,82,0.0,0.0,85,0.00,CLR,,0.21,0.0,WeatherDisplay:10.37,2013-01-24 19:11:00,
2013-01-24 20:13:00,46.8,42.5,29.47,East,82,2.0,2.0,85,0.01,RA,,0.22,0.0,WeatherDisplay:10.37,2013-01-24 19:13:00,
2013-01-24 20:14:00,46.8,42.5,29.47,East,82,3.5,3.5,85,0.01,RA,,0.22,0.0,WeatherDisplay:10.37,2013-01-24 19:14:00,
2013-01-24 20:16:00,46.8,42.5,29.47,East,82,3.5,3.5,85,0.01,RA,,0.22,0.0,WeatherDisplay:10.37,2013-01-24 19:16:00,
2013-01-24 20:18:00,46.7,42.4,29.47,East,82,2.3,2.3,85,0.01,RA,,0.22,0.0,WeatherDisplay:10.37,2013-01-24 19:18:00,
2013-01-24 20:19:00,46.7,42.4,29.47,East,82,2.3,0.0,85,0.01,RA,,0.22,0.0,WeatherDisplay:10.37,2013-01-24 19:19:00,
2013-01-24 20:21:00,46.7,42.4,29.47,East,82,0.0,0.0,85,0.01,RA,,0.22,0.0,WeatherDisplay:10.37,2013-01-24 19:21:00,
2013-01-24 20:24:00,46.6,42.3,29.47,East,81,3.5,3.5,85,0.01,,,0.22,0.0,WeatherDisplay:10.37,2013-01-24 19:24:00,
2013-01-24 20:25:00,46.6,42.3,29.47,ENE,65,4.0,4.0,85,0.01,CLR,,0.22,0.0,WeatherDisplay:10.37,2013-01-24 19:25:00,
2013-01-24 20:26:00,46.6,42.3,29.47,North,10,9.2,9.2,85,0.02,RA,,0.23,0.0,WeatherDisplay:10.37,2013-01-24 19:26:00,
2013-01-24 20:29:00,46.6,42.3,29.47,NNE,21,11.5,11.5,85,0.02,RA,,0.24,0.0,WeatherDisplay:10.37,2013-01-24 19:29:00,
2013-01-24 20:30:00,46.6,42.3,29.47,NNE,25,11.5,11.5,85,0.03,RA,,0.24,0.0,WeatherDisplay:10.37,2013-01-24 19:30:00,
2013-01-24 20:31:00,46.6,42.3,29.47,NNE,32,12.0,12.0,85,0.03,RA,,0.24,0.0,WeatherDisplay:10.37,2013-01-24 19:31:00,
2013-01-24 20:34:00,46.7,42.7,29.47,NE,44,9.2,9.2,86,0.03,RA,,0.24,0.0,WeatherDisplay:10.37,2013-01-24 19:34:00,
2013-01-24 20:35:00,46.7,42.7,29.47,North,5,9.2,9.2,86,0.03,RA,,0.24,0.0,WeatherDisplay:10.37,2013-01-24 19:35:00,
2013-01-24 20:36:00,46.8,42.8,29.47,NNE,17,4.6,4.6,86,0.03,RA,,0.24,0.0,WeatherDisplay:10.37,2013-01-24 19:36:00,
2013-01-24 20:40:00,46.8,42.8,29.47,NNE,17,3.5,3.5,86,0.03,RA,,0.24,0.0,WeatherDisplay:10.37,2013-01-24 19:40:00,
2013-01-24 20:42:00,46.9,42.9,29.47,NNE,22,3.5,3.5,86,0.04,RA,,0.25,0.0,WeatherDisplay:10.37,2013-01-24 19:42:00,
2013-01-24 20:45:00,46.9,42.9,29.47,North,360,5.8,5.8,86,0.06,RA,,0.27,0.0,WeatherDisplay:10.37,2013-01-24 19:45:00,
2013-01-24 20:47:00,46.9,42.9,29.47,SE,126,3.5,3.5,86,0.07,RA,,0.28,0.0,WeatherDisplay:10.37,2013-01-24 19:47:00,
2013-01-24 20:50:00,46.9,42.9,29.47,ESE,103,6.9,6.9,86,0.07,RA,,0.28,0.0,WeatherDisplay:10.37,2013-01-24 19:50:00,
2013-01-24 20:51:00,46.9,42.9,29.47,ESE,103,3.5,3.5,86,0.07,RA,,0.28,0.0,WeatherDisplay:10.37,2013-01-24 19:51:00,
2013-01-24 20:52:00,46.9,42.9,29.47,ESE,114,4.0,4.0,86,0.07,RA,,0.30,0.0,WeatherDisplay:10.37,2013-01-24 19:52:00,
2013-01-24 20:55:00,46.9,42.9,29.47,SE,128,9.2,9.2,86,0.10,RA,,0.31,0.0,WeatherDisplay:10.37,2013-01-24 19:55:00,
2013-01-24 20:56:00,46.9,42.9,29.47,SE,126,10.4,10.4,86,0.10,RA,,0.31,0.0,WeatherDisplay:10.37,2013-01-24 19:56:00,
2013-01-24 20:57:00,46.9,42.9,29.47,SSE,157,11.5,11.5,86,0.10,RA,,0.31,0.0,WeatherDisplay:10.37,2013-01-24 19:57:00,
2013-01-24 21:00:00,46.9,42.9,29.47,SE,140,6.0,6.0,86,0.11,RA,,0.32,0.0,WeatherDisplay:10.37,2013-01-24 20:00:00,
2013-01-24 21:01:00,46.9,42.9,29.47,SE,125,6.9,6.9,86,0.11,RA,,0.32,0.0,WeatherDisplay:10.37,2013-01-24 20:01:00,
2013-01-24 21:02:00,46.8,42.8,29.47,ESE,118,9.2,9.2,86,0.11,RA,,0.32,0.0,WeatherDisplay:10.37,2013-01-24 20:02:00,
2013-01-24 21:05:00,46.8,42.8,29.47,ESE,123,5.8,5.8,86,0.11,RA,,0.32,0.0,WeatherDisplay:10.37,2013-01-24 20:05:00,
2013-01-24 21:06:00,46.8,42.8,29.47,ESE,119,5.8,5.8,86,0.11,RA,,0.32,0.0,WeatherDisplay:10.37,2013-01-24 20:06:00,
2013-01-24 21:07:00,46.8,42.8,29.47,ENE,76,4.0,4.0,86,0.11,RA,,0.32,0.0,WeatherDisplay:10.37,2013-01-24 20:07:00,
2013-01-24 21:10:00,46.8,42.8,29.47,ENE,75,4.6,4.6,86,0.11,RA,,0.32,0.0,WeatherDisplay:10.37,2013-01-24 20:10:00,
2013-01-24 21:11:00,46.8,42.8,29.47,ENE,75,4.6,4.6,86,0.11,RA,,0.32,0.0,WeatherDisplay:10.37,2013-01-24 20:11:00,
2013-01-24 21:12:00,46.8,42.8,29.47,ENE,75,3.5,3.5,86,0.11,,,0.32,0.0,WeatherDisplay:10.37,2013-01-24 20:12:00,
2013-01-24 21:16:00,46.8,42.8,29.47,ENE,75,3.5,3.5,86,0.10,CLR,,0.32,0.0,WeatherDisplay:10.37,2013-01-24 20:16:00,
2013-01-24 21:17:00,46.8,42.8,29.47,ENE,75,3.5,0.0,86,0.10,CLR,,0.32,0.0,WeatherDisplay:10.37,2013-01-24 20:17:00,
2013-01-24 21:21:00,46.9,42.9,29.47,ENE,75,3.5,3.5,86,0.10,CLR,,0.32,0.0,WeatherDisplay:10.37,2013-01-24 20:21:00,
2013-01-24 21:22:00,46.9,42.9,29.47,ENE,75,3.5,3.5,86,0.10,CLR,,0.32,0.0,WeatherDisplay:10.37,2013-01-24 20:22:00,
2013-01-24 21:23:00,46.8,42.8,29.48,East,86,3.5,3.5,86,0.10,CLR,,0.32,0.0,WeatherDisplay:10.37,2013-01-24 20:23:00,
2013-01-24 21:26:00,46.8,42.8,29.47,SE,129,5.8,5.8,86,0.10,CLR,,0.32,0.0,WeatherDisplay:10.37,2013-01-24 20:26:00,
2013-01-24 21:27:00,46.8,42.8,29.48,SSE,151,6.9,6.9,86,0.10,CLR,,0.32,0.0,WeatherDisplay:10.37,2013-01-24 20:27:00,
2013-01-24 21:28:00,46.7,42.7,29.47,SE,135,9.2,9.2,86,0.10,CLR,,0.32,0.0,WeatherDisplay:10.37,2013-01-24 20:28:00,
2013-01-24 21:31:00,46.6,42.6,29.47,SE,132,6.9,6.9,86,0.09,CLR,,0.32,0.0,WeatherDisplay:10.37,2013-01-24 20:31:00,
2013-01-24 21:32:00,46.6,42.6,29.47,SE,126,4.6,4.6,86,0.08,CLR,,0.32,0.0,WeatherDisplay:10.37,2013-01-24 20:32:00,
2013-01-24 21:33:00,46.6,42.6,29.47,ESE,113,4.0,4.0,86,0.08,CLR,,0.32,0.0,WeatherDisplay:10.37,2013-01-24 20:33:00,
2013-01-24 21:36:00,46.6,42.6,29.47,ESE,120,9.2,9.2,86,0.08,CLR,,0.32,0.0,WeatherDisplay:10.37,2013-01-24 20:36:00,
2013-01-24 21:37:00,46.6,42.6,29.47,ESE,119,10.4,10.4,86,0.08,CLR,,0.32,0.0,WeatherDisplay:10.37,2013-01-24 20:37:00,
2013-01-24 21:38:00,46.6,42.6,29.47,SE,126,8.0,8.0,86,0.08,CLR,,0.32,0.0,WeatherDisplay:10.37,2013-01-24 20:38:00,
2013-01-24 21:41:00,46.5,42.5,29.47,SE,132,8.1,8.1,86,0.08,CLR,,0.32,0.0,WeatherDisplay:10.37,2013-01-24 20:41:00,
2013-01-24 21:42:00,46.4,42.4,29.47,ESE,118,9.2,9.2,86,0.08,CLR,,0.32,0.0,WeatherDisplay:10.37,2013-01-24 20:42:00,
2013-01-24 21:43:00,46.4,42.4,29.47,SE,133,10.4,10.4,86,0.08,CLR,,0.32,0.0,WeatherDisplay:10.37,2013-01-24 20:43:00,
2013-01-24 21:46:00,46.4,42.4,29.47,ESE,123,6.0,6.0,86,0.06,CLR,,0.32,0.0,WeatherDisplay:10.37,2013-01-24 20:46:00,
2013-01-24 21:47:00,46.4,42.4,29.47,ESE,115,5.8,5.8,86,0.05,CLR,,0.32,0.0,WeatherDisplay:10.37,2013-01-24 20:47:00,
2013-01-24 21:48:00,46.4,42.4,29.47,ESE,115,5.8,5.8,86,0.04,CLR,,0.32,0.0,WeatherDisplay:10.37,2013-01-24 20:48:00,
2013-01-24 21:52:00,46.3,42.3,29.47,ESE,121,5.8,5.8,86,0.04,CLR,,0.32,0.0,WeatherDisplay:10.37,2013-01-24 20:52:00,
2013-01-24 21:53:00,46.3,42.3,29.47,ESE,119,4.6,4.6,86,0.04,CLR,,0.32,0.0,WeatherDisplay:10.37,2013-01-24 20:53:00,
2013-01-24 21:54:00,46.3,42.3,29.47,SE,124,6.9,6.9,86,0.04,CLR,,0.32,0.0,WeatherDisplay:10.37,2013-01-24 20:54:00,
2013-01-24 21:57:00,46.3,42.3,29.47,ESE,120,3.5,3.5,86,0.01,CLR,,0.32,0.0,WeatherDisplay:10.37,2013-01-24 20:57:00,
2013-01-24 21:58:00,46.3,42.3,29.47,ESE,120,3.5,3.5,86,0.01,CLR,,0.32,0.0,WeatherDisplay:10.37,2013-01-24 20:58:00,
2013-01-24 21:59:00,46.3,42.3,29.47,ESE,118,7.0,7.0,86,0.01,CLR,,0.32,0.0,WeatherDisplay:10.37,2013-01-24 20:59:00,
2013-01-24 22:02:00,46.2,42.2,29.47,SE,126,5.8,5.8,86,0.00,CLR,,0.32,0.0,WeatherDisplay:10.37,2013-01-24 21:02:00,
2013-01-24 22:03:00,46.2,42.2,29.47,SE,126,3.5,3.5,86,0.00,CLR,,0.32,0.0,WeatherDisplay:10.37,2013-01-24 21:03:00,
2013-01-24 22:04:00,46.2,42.2,29.47,ESE,123,5.0,5.0,86,0.00,CLR,,0.32,0.0,WeatherDisplay:10.37,2013-01-24 21:04:00,
2013-01-24 22:07:00,46.2,42.2,29.47,ESE,112,3.5,3.6,86,0.00,CLR,,0.32,0.0,WeatherDisplay:10.37,2013-01-24 21:07:00,
2013-01-24 22:08:00,46.2,42.2,29.47,ESE,113,4.6,4.6,86,0.00,CLR,,0.32,0.0,WeatherDisplay:10.37,2013-01-24 21:08:00,
2013-01-24 22:09:00,46.2,42.2,29.47,ESE,113,3.5,3.5,86,0.00,CLR,,0.32,0.0,WeatherDisplay:10.37,2013-01-24 21:09:00,
2013-01-24 22:12:00,46.2,42.2,29.48,ESE,112,3.5,3.5,86,0.00,CLR,,0.32,0.0,WeatherDisplay:10.37,2013-01-24 21:12:00,
2013-01-24 22:13:00,46.1,42.1,29.47,ESE,111,3.5,3.5,86,0.00,CLR,,0.32,0.0,WeatherDisplay:10.37,2013-01-24 21:13:00,
2013-01-24 22:14:00,46.2,42.2,29.48,ESE,111,4.6,4.6,86,0.00,CLR,,0.32,0.0,WeatherDisplay:10.37,2013-01-24 21:14:00,
2013-01-24 22:17:00,46.1,42.1,29.48,ESE,111,4.6,4.6,86,0.00,CLR,,0.32,0.0,WeatherDisplay:10.37,2013-01-24 21:17:00,
2013-01-24 22:18:00,46.1,42.1,29.48,ESE,111,4.6,4.6,86,0.00,CLR,,0.32,0.0,WeatherDisplay:10.37,2013-01-24 21:18:00,
2013-01-24 22:20:00,46.1,42.1,29.47,ESE,111,3.5,3.5,86,0.00,CLR,,0.32,0.0,WeatherDisplay:10.37,2013-01-24 21:20:00,
2013-01-24 22:22:00,46.1,42.1,29.47,ESE,111,2.0,2.0,86,0.00,CLR,,0.32,0.0,WeatherDisplay:10.37,2013-01-24 21:22:00,
2013-01-24 22:23:00,46.1,42.1,29.47,ESE,111,2.3,2.3,86,0.00,CLR,,0.32,0.0,WeatherDisplay:10.37,2013-01-24 21:23:00,
2013-01-24 22:25:00,46.1,42.1,29.48,ESE,111,0.0,0.0,86,0.00,CLR,,0.32,0.0,WeatherDisplay:10.37,2013-01-24 21:25:00,
2013-01-24 22:27:00,46.1,42.1,29.48,ESE,111,1.1,1.1,86,0.00,CLR,,0.32,0.0,WeatherDisplay:10.37,2013-01-24 21:27:00,
2013-01-24 22:28:00,46.1,42.1,29.47,ESE,111,3.5,3.5,86,0.00,CLR,,0.32,0.0,WeatherDisplay:10.37,2013-01-24 21:28:00,
2013-01-24 22:29:00,46.1,42.1,29.47,ESE,111,3.5,3.5,86,0.00,CLR,,0.32,0.0,WeatherDisplay:10.37,2013-01-24 21:29:00,
2013-01-24 22:30:00,46.1,42.1,29.48,ESE,111,3.5,3.5,86,0.00,CLR,,0.32,0.0,WeatherDisplay:10.37,2013-01-24 21:30:00,
2013-01-24 22:33:00,46.0,42.0,29.47,ESE,111,1.1,0.0,86,0.00,CLR,,0.32,0.0,WeatherDisplay:10.37,2013-01-24 21:33:00,
2013-01-24 22:34:00,46.0,42.0,29.47,ESE,111,0.0,0.0,86,0.00,CLR,,0.32,0.0,WeatherDisplay:10.37,2013-01-24 21:34:00,
2013-01-24 22:35:00,46.0,42.0,29.47,ESE,111,0.0,0.0,86,0.00,CLR,,0.32,0.0,WeatherDisplay:10.37,2013-01-24 21:35:00,
2013-01-24 22:38:00,46.0,42.0,29.47,ESE,105,3.5,3.5,86,0.00,CLR,,0.32,0.0,WeatherDisplay:10.37,2013-01-24 21:38:00,
2013-01-24 22:39:00,46.0,42.0,29.47,ESE,106,3.5,3.5,86,0.00,CLR,,0.32,0.0,WeatherDisplay:10.37,2013-01-24 21:39:00,
2013-01-24 22:40:00,46.0,42.0,29.48,ESE,106,2.3,2.3,86,0.00,CLR,,0.32,0.0,WeatherDisplay:10.37,2013-01-24 21:40:00,
2013-01-24 22:43:00,45.9,41.9,29.48,ESE,106,3.5,3.5,86,0.00,CLR,,0.32,0.0,WeatherDisplay:10.37,2013-01-24 21:43:00,
2013-01-24 22:44:00,45.9,41.9,29.48,ESE,106,3.5,3.5,86,0.00,CLR,,0.32,0.0,WeatherDisplay:10.37,2013-01-24 21:44:00,
2013-01-24 22:45:00,45.9,41.9,29.48,ESE,106,2.3,0.0,86,0.00,CLR,,0.32,0.0,WeatherDisplay:10.37,2013-01-24 21:45:00,
2013-01-24 22:48:00,45.9,41.9,29.48,ESE,106,2.3,0.0,86,0.00,CLR,,0.32,0.0,WeatherDisplay:10.37,2013-01-24 21:48:00,
2013-01-24 22:49:00,45.9,41.9,29.48,ESE,106,0.0,0.0,86,0.00,CLR,,0.32,0.0,WeatherDisplay:10.37,2013-01-24 21:49:00,
2013-01-24 22:50:00,45.9,41.9,29.47,ESE,122,7.0,7.0,86,0.00,CLR,,0.32,0.0,WeatherDisplay:10.37,2013-01-24 21:50:00,
2013-01-24 22:53:00,45.8,41.9,29.47,East,98,8.1,8.1,86,0.02,RA,,0.34,0.0,WeatherDisplay:10.37,2013-01-24 21:53:00,
2013-01-24 22:54:00,45.8,41.9,29.47,ESE,109,9.2,9.2,86,0.02,RA,,0.34,0.0,WeatherDisplay:10.37,2013-01-24 21:54:00,
2013-01-24 22:55:00,45.8,41.9,29.47,ESE,103,4.6,4.6,86,0.02,RA,,0.34,0.0,WeatherDisplay:10.37,2013-01-24 21:55:00,
2013-01-24 22:58:00,45.7,41.8,29.47,ESE,102,3.5,3.5,86,0.02,RA,,0.34,0.0,WeatherDisplay:10.37,2013-01-24 21:58:00,
2013-01-24 22:59:00,45.7,41.8,29.47,ESE,102,3.5,3.5,86,0.02,RA,,0.34,0.0,WeatherDisplay:10.37,2013-01-24 21:59:00,
2013-01-24 23:01:00,45.7,41.8,29.47,ESE,102,3.5,3.5,86,0.02,RA,,0.34,0.0,WeatherDisplay:10.37,2013-01-24 22:01:00,
2013-01-24 23:03:00,45.7,42.1,29.47,ESE,102,3.5,3.5,87,0.02,,,0.34,0.0,WeatherDisplay:10.37,2013-01-24 22:03:00,
2013-01-24 23:04:00,45.7,42.1,29.47,ESE,102,3.5,3.5,87,0.02,,,0.34,0.0,WeatherDisplay:10.37,2013-01-24 22:04:00,
2013-01-24 23:06:00,45.6,42.0,29.47,ESE,102,3.5,3.5,87,0.02,CLR,,0.34,0.0,WeatherDisplay:10.37,2013-01-24 22:06:00,
2013-01-24 23:08:00,45.6,42.0,29.47,ESE,102,2.3,2.3,87,0.02,CLR,,0.34,0.0,WeatherDisplay:10.37,2013-01-24 22:08:00,
2013-01-24 23:09:00,45.6,42.0,29.47,ESE,102,3.5,3.5,87,0.02,CLR,,0.34,0.0,WeatherDisplay:10.37,2013-01-24 22:09:00,
2013-01-24 23:11:00,45.5,41.9,29.47,ESE,102,3.5,3.5,87,0.02,CLR,,0.34,0.0,WeatherDisplay:10.37,2013-01-24 22:11:00,
2013-01-24 23:13:00,45.5,41.9,29.47,ESE,102,2.3,2.3,87,0.02,CLR,,0.34,0.0,WeatherDisplay:10.37,2013-01-24 22:13:00,
2013-01-24 23:14:00,45.5,41.9,29.47,ESE,102,2.3,2.3,87,0.02,CLR,,0.34,0.0,WeatherDisplay:10.37,2013-01-24 22:14:00,
2013-01-24 23:16:00,45.5,41.9,29.47,ESE,102,2.3,2.3,87,0.02,CLR,,0.34,0.0,WeatherDisplay:10.37,2013-01-24 22:16:00,
2013-01-24 23:19:00,45.4,41.8,29.47,ESE,102,3.5,3.5,87,0.02,CLR,,0.34,0.0,WeatherDisplay:10.37,2013-01-24 22:19:00,
2013-01-24 23:20:00,45.4,41.8,29.47,ESE,102,3.5,3.5,87,0.02,CLR,,0.34,0.0,WeatherDisplay:10.37,2013-01-24 22:20:00,
2013-01-24 23:22:00,45.4,41.8,29.47,ESE,102,3.5,3.5,87,0.02,CLR,,0.34,0.0,WeatherDisplay:10.37,2013-01-24 22:22:00,
2013-01-24 23:24:00,45.3,41.7,29.47,ESE,102,2.3,0.0,87,0.02,CLR,,0.34,0.0,WeatherDisplay:10.37,2013-01-24 22:24:00,
2013-01-24 23:25:00,45.3,41.7,29.47,ESE,102,0.0,0.0,87,0.02,CLR,,0.34,0.0,WeatherDisplay:10.37,2013-01-24 22:25:00,
2013-01-24 23:27:00,45.2,41.6,29.47,ESE,102,2.3,2.3,87,0.02,CLR,,0.34,0.0,WeatherDisplay:10.37,2013-01-24 22:27:00,
2013-01-24 23:29:00,45.2,41.6,29.47,ESE,102,2.3,2.3,87,0.02,CLR,,0.34,0.0,WeatherDisplay:10.37,2013-01-24 22:29:00,
2013-01-24 23:30:00,45.2,41.6,29.47,ESE,102,3.0,3.0,87,0.02,CLR,,0.34,0.0,WeatherDisplay:10.37,2013-01-24 22:30:00,
2013-01-24 23:33:00,45.2,41.6,29.47,ESE,102,0.0,0.0,87,0.02,CLR,,0.34,0.0,WeatherDisplay:10.37,2013-01-24 22:33:00,
2013-01-24 23:34:00,45.1,41.5,29.47,ESE,102,0.0,0.0,87,0.02,CLR,,0.34,0.0,WeatherDisplay:10.37,2013-01-24 22:34:00,
2013-01-24 23:35:00,45.1,41.5,29.47,ESE,102,1.1,1.1,87,0.02,CLR,,0.34,0.0,WeatherDisplay:10.37,2013-01-24 22:35:00,
2013-01-24 23:38:00,45.1,41.5,29.47,ESE,102,2.0,2.0,87,0.02,CLR,,0.34,0.0,WeatherDisplay:10.37,2013-01-24 22:38:00,
2013-01-24 23:39:00,45.1,41.5,29.47,ESE,102,3.5,3.5,87,0.02,CLR,,0.34,0.0,WeatherDisplay:10.37,2013-01-24 22:39:00,
2013-01-24 23:40:00,45.1,41.5,29.47,ESE,102,2.3,2.3,87,0.02,CLR,,0.34,0.0,WeatherDisplay:10.37,2013-01-24 22:40:00,
2013-01-24 23:43:00,44.9,41.3,29.47,ESE,102,2.3,2.3,87,0.02,CLR,,0.34,0.0,WeatherDisplay:10.37,2013-01-24 22:43:00,
2013-01-24 23:44:00,44.9,41.3,29.47,ESE,102,2.3,2.3,87,0.02,CLR,,0.34,0.0,WeatherDisplay:10.37,2013-01-24 22:44:00,
2013-01-24 23:45:00,44.9,41.3,29.47,ESE,102,1.1,0.0,87,0.02,CLR,,0.34,0.0,WeatherDisplay:10.37,2013-01-24 22:45:00,
2013-01-24 23:48:00,44.9,41.3,29.47,ESE,102,3.5,3.5,87,0.02,CLR,,0.34,0.0,WeatherDisplay:10.37,2013-01-24 22:48:00,
2013-01-24 23:49:00,44.9,41.3,29.47,ESE,102,3.5,3.5,87,0.02,CLR,,0.34,0.0,WeatherDisplay:10.37,2013-01-24 22:49:00,
2013-01-24 23:50:00,44.9,41.3,29.47,ESE,102,2.3,2.3,87,0.02,CLR,,0.34,0.0,WeatherDisplay:10.37,2013-01-24 22:50:00,
2013-01-24 23:51:00,44.9,41.3,29.47,ESE,102,1.1,0.0,87,0.02,CLR,,0.34,0.0,WeatherDisplay:10.37,2013-01-24 22:51:00,
2013-01-24 23:53:00,44.9,41.3,29.46,ESE,102,2.3,2.3,87,0.00,CLR,,0.34,0.0,WeatherDisplay:10.37,2013-01-24 22:53:00,
2013-01-24 23:54:00,44.9,41.3,29.46,ESE,102,2.3,2.3,87,0.00,CLR,,0.34,0.0,WeatherDisplay:10.37,2013-01-24 22:54:00,
2013-01-24 23:55:00,44.9,41.3,29.46,SE,136,3.5,3.5,87,0.00,CLR,,0.34,0.0,WeatherDisplay:10.37,2013-01-24 22:55:00,
2013-01-24 23:56:00,44.8,41.2,29.46,SE,136,3.5,3.5,87,0.00,CLR,,0.34,0.0,WeatherDisplay:10.37,2013-01-24 22:56:00,
2013-01-24 23:59:00,44.8,41.2,29.46,SE,136,0.0,0.0,87,0.00,CLR,,0.34,0.0,WeatherDisplay:10.37,2013-01-24 22:59:00,